PEQUAWKET POND DAM: From 05/12/2020 00:00 to 07/13/2020 00:00

Date LAKE ELEVATION [FT] PRECIPITATION INCREMENT [IN] PRECIPITATION DAILY TOTAL [IN] AIR TEMPERATURE [F] RESERVOIR RELEASE [CFS]
07/11/2020 18:00 -- -- -- -- 11.0
07/11/2020 17:00 456.99 0.03 -- 79.9 11.0
07/11/2020 16:00 456.99 0.00 -- 84.9 11.0
07/11/2020 15:00 456.98 0.00 -- 84.0 10.8
07/11/2020 14:00 456.98 0.00 -- 80.0 10.3
07/11/2020 13:00 456.97 0.00 -- 75.4 10.0
07/11/2020 12:00 456.97 0.00 -- 73.4 10.0
07/11/2020 11:00 456.97 0.03 -- 72.6 10.0
07/11/2020 10:00 456.97 0.00 -- 72.8 10.0
07/11/2020 09:00 456.97 0.00 -- 72.6 10.0
07/11/2020 08:00 456.97 0.00 -- 72.1 10.0
07/11/2020 07:00 456.97 0.01 -- 71.5 10.0
07/11/2020 06:00 456.97 0.03 -- 71.2 10.0
07/11/2020 05:00 456.97 0.06 -- 71.2 10.0
07/11/2020 04:00 456.96 0.00 -- 71.3 10.0
07/11/2020 03:00 456.96 0.04 -- 71.3 9.8
07/11/2020 02:00 456.96 0.00 -- 71.7 9.0
07/11/2020 01:00 456.95 0.00 -- 72.9 9.0
07/11/2020 00:00 456.96 0.00 -- 73.8 9.0
07/10/2020 23:00 456.96 0.00 -- 74.5 9.0
07/10/2020 22:00 456.96 0.00 -- 76.4 9.5
07/10/2020 21:00 456.96 0.00 -- 78.6 9.5
07/10/2020 20:00 456.96 0.00 -- 80.7 9.0
07/10/2020 19:00 456.96 0.00 -- 82.8 9.3
07/10/2020 18:00 456.96 0.00 -- 86.6 9.0
07/10/2020 17:00 456.95 0.00 -- 89.2 9.0
07/10/2020 16:00 456.95 0.00 -- 89.4 9.0
07/10/2020 15:00 456.95 0.00 -- 91.0 9.0
07/10/2020 14:00 456.95 0.00 -- 85.6 9.0
07/10/2020 13:00 456.95 0.00 -- 84.2 9.0
07/10/2020 12:00 456.94 0.00 -- 79.0 9.0
07/10/2020 11:00 456.95 0.00 -- 78.0 9.0
07/10/2020 10:00 456.94 0.00 -- 73.5 9.0
07/10/2020 09:00 456.94 0.00 -- 72.3 9.0
07/10/2020 08:00 456.94 0.00 -- 70.9 9.0
07/10/2020 07:00 456.94 0.00 -- 70.6 9.0
07/10/2020 06:00 456.94 0.00 -- 71.0 9.0
07/10/2020 05:00 456.94 0.00 -- 71.0 9.0
07/10/2020 04:00 456.94 0.00 -- 71.4 9.0
07/10/2020 03:00 456.93 0.00 -- 73.3 9.0
07/10/2020 02:00 456.93 0.00 -- 73.6 9.0
07/10/2020 01:00 456.93 0.00 -- 75.2 9.0
07/10/2020 00:00 456.93 0.00 0.00 76.7 9.0
07/09/2020 23:00 456.93 0.00 -- 77.9 9.0
07/09/2020 22:00 456.93 0.00 -- 81.8 9.0
07/09/2020 21:00 456.93 0.00 -- 83.9 9.0
07/09/2020 20:00 456.93 0.00 -- 89.1 9.0
07/09/2020 19:00 456.92 0.00 -- 89.6 9.0
07/09/2020 18:00 456.92 0.00 -- 93.4 9.0
07/09/2020 17:00 456.92 0.00 -- 92.4 9.0
07/09/2020 16:00 456.92 0.00 -- 86.2 8.5
07/09/2020 15:00 456.92 0.00 -- 90.6 8.3
07/09/2020 14:00 456.92 0.00 -- 89.3 8.0
07/09/2020 13:00 456.91 0.00 -- 84.7 8.0
07/09/2020 12:00 456.91 0.00 -- 79.8 8.0
07/09/2020 11:00 456.90 0.00 -- 77.0 8.0
07/09/2020 10:00 456.90 0.00 -- 72.6 8.0
07/09/2020 09:00 456.90 0.00 -- 66.3 8.0
07/09/2020 08:00 456.90 0.00 -- 62.5 8.0
07/09/2020 07:00 456.89 0.00 -- 64.0 8.0
07/09/2020 06:00 456.89 0.00 -- 64.1 8.0
07/09/2020 05:00 456.89 0.00 -- 64.7 8.0
07/09/2020 04:00 456.89 0.00 -- 64.8 8.0
07/09/2020 03:00 456.89 0.01 -- 65.6 8.0
07/09/2020 02:00 456.89 0.00 -- 66.4 8.0
07/09/2020 01:00 456.89 0.00 -- 66.5 8.0
07/09/2020 00:00 456.89 0.00 0.01 66.5 8.0
07/08/2020 23:00 456.89 0.00 -- 68.2 8.0
07/08/2020 22:00 456.89 0.00 -- 67.9 8.0
07/08/2020 21:00 456.89 0.00 -- 68.9 8.0
07/08/2020 20:00 456.89 0.14 -- 69.5 8.0
07/08/2020 19:00 456.87 0.00 -- 80.9 8.0
07/08/2020 18:00 456.87 0.00 -- 83.2 8.0
07/08/2020 17:00 456.88 0.00 -- 83.8 7.8
07/08/2020 16:00 456.87 0.00 -- 84.9 7.5
07/08/2020 15:00 456.87 0.00 -- 82.8 7.5
07/08/2020 14:00 456.85 0.00 -- 84.3 7.0
07/08/2020 13:00 456.86 0.00 -- 79.6 7.0
07/08/2020 12:00 456.84 0.00 -- 78.6 7.0
07/08/2020 11:00 456.84 0.00 -- 74.6 7.0
07/08/2020 10:00 456.83 0.00 -- 72.9 12.3
07/08/2020 09:00 456.84 0.00 -- 70.5 14.0
07/08/2020 08:00 456.84 0.00 -- 69.6 14.0
07/08/2020 07:00 456.84 0.00 -- 69.3 14.0
07/08/2020 06:00 456.84 0.00 -- 69.3 14.0
07/08/2020 05:00 456.84 0.00 -- 68.9 14.0
07/08/2020 04:00 456.85 0.00 -- 68.3 14.0
07/08/2020 03:00 456.85 0.00 -- 68.3 14.0
07/08/2020 02:00 456.85 0.00 -- 68.0 14.0
07/08/2020 01:00 456.86 0.00 -- 68.8 14.8
07/08/2020 00:00 456.86 0.00 0.14 69.1 15.0
07/07/2020 23:00 456.86 0.00 -- 70.0 15.0
07/07/2020 22:00 456.87 0.00 -- 71.7 15.0
07/07/2020 21:00 456.87 0.00 -- 74.7 15.0
07/07/2020 20:00 456.88 0.00 -- 77.9 15.0
07/07/2020 19:00 456.88 0.00 -- 80.1 15.5
07/07/2020 18:00 456.89 0.00 -- 83.0 16.0
07/07/2020 17:00 456.89 0.00 -- 83.8 15.8
07/07/2020 16:00 456.88 0.00 -- 84.5 15.5
07/07/2020 15:00 456.89 0.00 -- 83.5 16.0
07/07/2020 14:00 456.89 0.00 -- 82.6 16.0
07/07/2020 13:00 456.88 0.00 -- 80.3 16.0
07/07/2020 12:00 456.89 0.00 -- 76.2 16.0
07/07/2020 11:00 456.89 0.00 -- 74.8 16.0
07/07/2020 10:00 456.89 0.00 -- 69.7 15.5
07/07/2020 09:00 456.88 0.00 -- 66.1 16.0
07/07/2020 08:00 456.89 0.00 -- 59.7 16.0
07/07/2020 07:00 456.89 0.00 -- 57.5 16.0
07/07/2020 06:00 456.89 0.00 -- 58.2 16.0
07/07/2020 05:00 456.90 0.00 -- 59.7 16.0
07/07/2020 04:00 456.90 0.00 -- 60.2 16.0
07/07/2020 03:00 456.90 0.00 -- 62.0 16.3
07/07/2020 02:00 456.91 0.00 -- 63.1 17.0
07/07/2020 01:00 456.91 0.00 -- 65.5 17.0
07/07/2020 00:00 456.92 0.00 0.00 66.1 17.0
07/06/2020 23:00 456.92 0.00 -- 69.0 17.0
07/06/2020 22:00 456.93 0.00 -- 73.3 17.0
07/06/2020 21:00 456.92 0.00 -- 75.5 17.0
07/06/2020 20:00 456.93 0.00 -- 77.9 17.3
07/06/2020 19:00 456.93 0.00 -- 79.2 17.8
07/06/2020 18:00 456.94 0.00 -- 81.9 18.0
07/06/2020 17:00 456.94 0.00 -- 83.3 18.0
07/06/2020 16:00 456.94 0.00 -- 87.6 18.0
07/06/2020 15:00 456.94 0.00 -- 82.6 18.0
07/06/2020 14:00 456.94 0.00 -- 82.6 18.0
07/06/2020 13:00 456.94 0.00 -- 80.5 18.0
07/06/2020 12:00 456.94 0.00 -- 77.6 18.0
07/06/2020 11:00 456.94 0.00 -- 77.4 18.0
07/06/2020 10:00 456.94 0.00 -- 72.3 18.0
07/06/2020 09:00 456.94 0.00 -- 69.3 18.0
07/06/2020 08:00 456.95 0.00 -- 65.7 18.0
07/06/2020 07:00 456.95 0.00 -- 66.1 18.0
07/06/2020 06:00 456.95 0.00 -- 66.3 18.3
07/06/2020 05:00 456.95 0.00 -- 66.9 18.3
07/06/2020 04:00 456.95 0.00 -- 66.6 19.0
07/06/2020 03:00 456.96 0.00 -- 66.5 19.0
07/06/2020 02:00 456.96 0.00 -- 66.9 19.0
07/06/2020 01:00 456.97 0.00 -- 67.8 19.0
07/06/2020 00:00 456.97 0.00 0.00 68.2 19.3
07/05/2020 23:00 456.97 0.00 -- 67.8 19.3
07/05/2020 22:00 456.97 0.00 -- 68.4 20.0
07/05/2020 21:00 456.97 0.01 -- 69.8 20.0
07/05/2020 20:00 456.97 0.00 -- 71.9 20.0
07/05/2020 19:00 456.97 0.00 -- 73.8 20.0
07/05/2020 18:00 456.97 0.00 -- 76.6 20.0
07/05/2020 17:00 456.97 0.00 -- 76.9 19.8
07/05/2020 16:00 456.99 0.00 -- 82.9 20.5
07/05/2020 15:00 456.98 0.00 -- 79.7 20.0
07/05/2020 14:00 456.98 0.00 -- 80.3 20.0
07/05/2020 13:00 456.98 0.00 -- 81.8 20.8
07/05/2020 12:00 456.99 0.00 -- 75.4 20.8
07/05/2020 11:00 456.99 0.00 -- 72.4 21.0
07/05/2020 10:00 456.99 0.00 -- 69.0 21.0
07/05/2020 09:00 456.99 0.00 -- 66.5 21.0
07/05/2020 08:00 456.99 0.00 -- 64.0 21.0
07/05/2020 07:00 457.00 0.00 -- 63.2 21.0
07/05/2020 06:00 457.00 0.00 -- 62.8 21.0
07/05/2020 05:00 457.00 0.00 -- 64.5 21.5
07/05/2020 04:00 457.00 0.00 -- 64.4 22.0
07/05/2020 03:00 457.01 0.00 -- 66.4 22.0
07/05/2020 02:00 457.01 0.00 -- 66.7 22.0
07/05/2020 01:00 457.01 0.00 -- 66.3 22.0
07/05/2020 00:00 457.02 0.00 0.01 68.5 23.0
07/04/2020 23:00 457.02 0.00 -- 71.4 23.0
07/04/2020 22:00 457.02 0.00 -- 74.3 23.0
07/04/2020 21:00 457.02 0.00 -- 79.2 23.0
07/04/2020 20:00 457.02 0.00 -- 80.9 23.0
07/04/2020 19:00 457.03 0.00 -- 84.8 23.3
07/04/2020 18:00 457.03 0.00 -- 81.7 24.0
07/04/2020 17:00 457.04 0.00 -- 88.5 24.0
07/04/2020 16:00 457.03 0.00 -- 88.7 24.0
07/04/2020 15:00 457.03 0.00 -- 86.5 24.0
07/04/2020 14:00 457.04 0.00 -- 85.0 24.0
07/04/2020 13:00 457.04 0.00 -- 82.3 24.0
07/04/2020 12:00 457.04 0.00 -- 77.0 24.0
07/04/2020 11:00 457.04 0.00 -- 72.2 24.0
07/04/2020 10:00 457.04 0.00 -- 67.2 24.0
07/04/2020 09:00 457.04 0.00 -- 64.0 24.0
07/04/2020 08:00 457.04 0.00 -- 62.3 24.3
07/04/2020 07:00 457.04 0.00 -- 62.4 24.8
07/04/2020 06:00 457.04 0.00 -- 63.5 25.0
07/04/2020 05:00 457.05 0.00 -- 64.5 25.0
07/04/2020 04:00 457.05 0.00 -- 64.3 25.0
07/04/2020 03:00 457.05 0.00 -- 65.5 25.3
07/04/2020 02:00 457.06 0.00 -- 65.2 27.5
07/04/2020 01:00 457.06 0.00 -- 66.0 28.0
07/04/2020 00:00 457.06 0.00 0.00 65.5 28.0
07/03/2020 23:00 457.06 0.00 -- 67.3 28.3
07/03/2020 22:00 457.06 0.00 -- 66.4 28.5
07/03/2020 21:00 457.07 0.00 -- 67.9 29.0
07/03/2020 20:00 457.07 0.00 -- 70.5 29.0
07/03/2020 19:00 457.07 0.00 -- 72.8 29.0
07/03/2020 18:00 457.07 0.00 -- 72.0 29.0
07/03/2020 17:00 457.07 0.00 -- 72.7 29.0
07/03/2020 16:00 457.07 0.00 -- 73.7 29.0
07/03/2020 15:00 457.07 0.00 -- 72.6 29.0
07/03/2020 14:00 457.07 0.00 -- 70.1 29.0
07/03/2020 13:00 457.07 0.00 -- 70.4 29.0
07/03/2020 12:00 457.07 0.00 -- 69.2 29.0
07/03/2020 11:00 457.07 0.00 -- 70.7 28.8
07/03/2020 10:00 457.07 0.00 -- 72.3 29.0
07/03/2020 09:00 457.07 0.00 -- 72.3 30.0
07/03/2020 08:00 457.07 0.00 -- 71.8 29.3
07/03/2020 07:00 457.07 0.00 -- 71.4 29.8
07/03/2020 06:00 457.07 0.00 -- 71.4 29.8
07/03/2020 05:00 457.07 0.00 -- 70.8 29.8
07/03/2020 04:00 457.08 0.00 -- 72.3 29.3
07/03/2020 03:00 457.07 0.00 -- 73.2 29.0
07/03/2020 02:00 457.07 0.00 -- 74.1 29.0
07/03/2020 01:00 457.07 0.00 -- 75.1 29.0
07/03/2020 00:00 457.07 0.00 0.00 75.1 29.0
07/02/2020 23:00 457.06 0.00 -- 77.3 28.3
07/02/2020 22:00 457.06 0.00 -- 79.6 28.3
07/02/2020 21:00 457.06 0.00 -- 83.0 28.0
07/02/2020 20:00 457.06 0.00 -- 85.2 27.0
07/02/2020 19:00 457.05 0.00 -- 84.0 26.5
07/02/2020 18:00 457.05 0.00 -- 93.6 25.3
07/02/2020 17:00 457.05 0.00 -- 92.8 24.5
07/02/2020 16:00 457.04 0.00 -- 91.6 24.0
07/02/2020 15:00 457.02 0.00 -- 90.8 23.3
07/02/2020 14:00 457.01 0.00 -- 88.5 22.0
07/02/2020 13:00 457.01 0.00 -- 85.3 21.5
07/02/2020 12:00 456.99 0.00 -- 84.3 20.8
07/02/2020 11:00 456.95 0.00 -- 79.2 55.5
07/02/2020 10:00 456.96 0.00 -- 73.7 56.5
07/02/2020 09:00 456.97 0.00 -- 67.4 57.8
07/02/2020 08:00 456.98 0.00 -- 62.5 58.8
07/02/2020 07:00 456.99 0.00 -- 59.8 60.8
07/02/2020 06:00 457.00 0.00 -- 60.7 62.3
07/02/2020 05:00 457.02 0.00 -- 62.2 64.3
07/02/2020 04:00 457.03 0.00 -- 62.4 66.0
07/02/2020 03:00 457.05 0.00 -- 63.1 69.8
07/02/2020 02:00 457.07 0.00 -- 63.8 77.5
07/02/2020 01:00 457.08 0.00 -- 64.4 80.0
07/02/2020 00:00 457.10 0.00 0.00 65.7 83.0
07/01/2020 23:00 457.12 0.00 -- 67.0 86.3
07/01/2020 22:00 457.14 0.00 -- 68.7 89.3
07/01/2020 21:00 457.17 0.00 -- 71.3 93.3
07/01/2020 20:00 457.18 0.00 -- 71.7 95.8
07/01/2020 19:00 457.21 0.00 -- 73.4 100.0
07/01/2020 18:00 457.24 0.00 -- 81.5 105.5
07/01/2020 17:00 457.27 0.00 -- 80.0 110.0
07/01/2020 16:00 457.29 0.00 -- 76.7 114.8
07/01/2020 15:00 457.38 0.01 -- 77.8 47.5
07/01/2020 14:00 457.38 0.00 -- 71.8 47.3
07/01/2020 13:00 457.39 0.00 -- 74.9 46.8
07/01/2020 12:00 457.37 0.00 -- 74.5 46.0
07/01/2020 11:00 457.37 0.00 -- 72.9 46.0
07/01/2020 10:00 457.37 0.00 -- 69.6 46.0
07/01/2020 09:00 457.37 0.00 -- 67.8 45.8
07/01/2020 08:00 457.37 0.00 -- 67.0 45.3
07/01/2020 07:00 457.37 0.00 -- 66.8 46.0
07/01/2020 06:00 457.36 0.00 -- 66.5 45.0
07/01/2020 05:00 457.36 0.09 -- 66.6 45.0
07/01/2020 04:00 457.35 0.14 -- 67.1 43.5
07/01/2020 03:00 457.35 0.02 -- 66.9 43.0
07/01/2020 02:00 457.34 0.00 -- 66.9 43.0
07/01/2020 01:00 457.34 0.02 -- 67.2 43.0
07/01/2020 00:00 457.34 0.02 0.28 67.1 43.0
06/30/2020 23:00 457.34 0.08 -- 67.4 42.8
06/30/2020 22:00 457.33 0.05 -- 67.9 41.5
06/30/2020 21:00 457.33 0.00 -- 68.9 41.3
06/30/2020 20:00 457.33 0.00 -- 70.1 41.0
06/30/2020 19:00 457.33 0.02 -- 70.4 41.0
06/30/2020 18:00 457.32 0.02 -- 69.8 40.5
06/30/2020 17:00 457.32 0.01 -- 71.3 40.3
06/30/2020 16:00 457.32 0.00 -- 72.3 40.0
06/30/2020 15:00 457.31 0.00 -- 71.7 39.5
06/30/2020 14:00 457.31 0.05 -- 70.4 39.0
06/30/2020 13:00 457.31 0.00 -- 72.5 39.0
06/30/2020 12:00 457.30 0.01 -- 71.3 38.3
06/30/2020 11:00 457.30 0.01 -- 68.8 38.0
06/30/2020 10:00 457.30 0.02 -- 67.1 37.8
06/30/2020 09:00 457.29 0.03 -- 65.8 37.3
06/30/2020 08:00 457.29 0.12 -- 65.1 36.3
06/30/2020 07:00 457.28 0.01 -- 64.4 35.3
06/30/2020 06:00 457.27 0.04 -- 64.6 34.8
06/30/2020 05:00 457.26 0.00 -- 64.4 34.0
06/30/2020 04:00 457.26 0.00 -- 64.5 33.5
06/30/2020 03:00 457.25 0.00 -- 64.5 33.0
06/30/2020 02:00 457.25 0.01 -- 64.6 33.0
06/30/2020 01:00 457.25 0.12 -- 64.8 32.3
06/30/2020 00:00 457.24 0.13 0.62 65.2 31.0
06/29/2020 23:00 457.22 0.03 -- 65.4 30.0
06/29/2020 22:00 457.21 0.04 -- 64.9 29.0
06/29/2020 21:00 457.20 0.03 -- 65.3 28.0
06/29/2020 20:00 457.20 0.02 -- 65.4 27.8
06/29/2020 19:00 457.19 0.01 -- 65.2 27.0
06/29/2020 18:00 457.19 0.05 -- 66.0 27.0
06/29/2020 17:00 457.18 0.12 -- 65.8 25.8
06/29/2020 16:00 457.17 0.06 -- 65.9 24.8
06/29/2020 15:00 457.16 0.01 -- 66.1 24.0
06/29/2020 14:00 457.15 0.00 -- 66.6 23.5
06/29/2020 13:00 457.15 0.02 -- 66.0 23.0
06/29/2020 12:00 457.14 0.03 -- 65.5 22.8
06/29/2020 11:00 457.14 0.04 -- 66.9 22.0
06/29/2020 10:00 457.13 0.12 -- 65.6 21.3
06/29/2020 09:00 457.12 0.09 -- 65.1 20.3
06/29/2020 08:00 457.10 0.09 -- 65.5 19.8
06/29/2020 07:00 457.10 0.10 -- 65.8 18.5
06/29/2020 06:00 457.08 0.06 -- 65.4 17.5
06/29/2020 05:00 457.07 0.03 -- 66.3 17.0
06/29/2020 04:00 457.06 0.02 -- 66.8 16.8
06/29/2020 03:00 457.06 0.01 -- 66.9 16.0
06/29/2020 02:00 457.06 0.01 -- 66.9 15.8
06/29/2020 01:00 457.05 0.01 -- 67.8 14.8
06/29/2020 00:00 457.05 0.01 1.13 67.8 14.5
06/28/2020 23:00 457.04 0.00 -- 67.6 14.0
06/28/2020 22:00 457.04 0.00 -- 67.8 14.0
06/28/2020 21:00 457.03 0.00 -- 68.1 13.5
06/28/2020 20:00 457.03 0.05 -- 67.7 13.0
06/28/2020 19:00 457.02 0.14 -- 67.9 12.8
06/28/2020 18:00 456.99 0.92 -- 68.8 10.0
06/28/2020 17:00 456.91 0.00 -- 72.6 8.3
06/28/2020 16:00 456.92 0.00 -- 76.6 8.8
06/28/2020 15:00 456.92 0.00 -- 83.9 8.0
06/28/2020 14:00 456.91 0.00 -- 82.6 8.0
06/28/2020 13:00 456.91 0.00 -- 82.6 8.0
06/28/2020 12:00 456.91 0.00 -- 80.0 8.0
06/28/2020 11:00 456.90 0.00 -- 77.9 8.0
06/28/2020 10:00 456.89 0.00 -- 73.1 8.0
06/28/2020 09:00 456.89 0.00 -- 68.5 8.0
06/28/2020 08:00 456.89 0.00 -- 61.7 8.0
06/28/2020 07:00 456.89 0.00 -- 59.0 8.0
06/28/2020 06:00 456.89 0.00 -- 59.2 8.0
06/28/2020 05:00 456.88 0.00 -- 60.3 8.0
06/28/2020 04:00 456.89 0.00 -- 62.0 8.0
06/28/2020 03:00 456.89 0.00 -- 62.2 8.0
06/28/2020 02:00 456.89 0.00 -- 66.4 8.0
06/28/2020 01:00 456.89 0.00 -- 68.8 8.0
06/28/2020 00:00 456.89 0.00 1.12 70.5 8.0
06/27/2020 23:00 456.89 0.00 -- 70.8 8.0
06/27/2020 22:00 456.90 0.00 -- 73.7 8.0
06/27/2020 21:00 456.90 0.00 -- 76.9 8.0
06/27/2020 20:00 456.89 0.00 -- 78.8 8.0
06/27/2020 19:00 456.90 0.00 -- 79.8 8.0
06/27/2020 18:00 456.89 0.00 -- 80.6 8.0
06/27/2020 17:00 456.90 0.00 -- 79.5 8.0
06/27/2020 16:00 456.90 0.00 -- 79.4 8.0
06/27/2020 15:00 456.89 0.00 -- 78.6 8.0
06/27/2020 14:00 456.90 0.00 -- 78.8 8.0
06/27/2020 13:00 456.90 0.00 -- 79.8 8.3
06/27/2020 12:00 456.89 0.00 -- 78.6 8.0
06/27/2020 11:00 456.89 0.00 -- 73.6 8.0
06/27/2020 10:00 456.89 0.00 -- 68.3 8.0
06/27/2020 09:00 456.89 0.00 -- 64.1 8.0
06/27/2020 08:00 456.89 0.00 -- 60.2 8.0
06/27/2020 07:00 456.89 0.00 -- 57.6 8.0
06/27/2020 06:00 456.89 0.00 -- 57.6 8.0
06/27/2020 05:00 456.89 0.00 -- 58.1 8.0
06/27/2020 04:00 456.89 0.00 -- 59.6 8.0
06/27/2020 03:00 456.90 0.00 -- 62.0 8.0
06/27/2020 02:00 456.90 0.00 -- 63.3 8.0
06/27/2020 01:00 456.90 0.00 -- 67.1 8.0
06/27/2020 00:00 456.90 0.00 0.00 68.4 8.0
06/26/2020 23:00 456.90 0.00 -- 69.6 8.0
06/26/2020 22:00 456.91 0.00 -- 72.7 8.0
06/26/2020 21:00 456.91 0.00 -- 77.5 8.0
06/26/2020 20:00 456.92 0.00 -- 80.7 8.0
06/26/2020 19:00 456.91 0.00 -- 81.8 8.0
06/26/2020 18:00 456.91 0.00 -- 82.9 8.0
06/26/2020 17:00 456.91 0.00 -- 80.2 8.0
06/26/2020 16:00 456.91 0.00 -- 72.4 8.0
06/26/2020 15:00 456.91 0.00 -- 74.5 8.0
06/26/2020 14:00 456.91 0.00 -- 82.8 8.0
06/26/2020 13:00 456.91 0.00 -- 79.3 8.0
06/26/2020 12:00 456.90 0.00 -- 80.4 8.0
06/26/2020 11:00 456.90 0.00 -- 76.3 8.0
06/26/2020 10:00 456.90 0.00 -- 74.3 8.0
06/26/2020 09:00 456.90 0.00 -- 68.9 8.0
06/26/2020 08:00 456.90 0.00 -- 60.6 8.0
06/26/2020 07:00 456.90 0.00 -- 60.0 8.0
06/26/2020 06:00 456.90 0.00 -- 60.7 8.0
06/26/2020 05:00 456.90 0.00 -- 60.9 8.0
06/26/2020 04:00 456.90 0.00 -- 61.2 8.0
06/26/2020 03:00 456.91 0.00 -- 59.6 8.0
06/26/2020 02:00 456.91 0.00 -- 63.0 8.0
06/26/2020 01:00 456.91 0.00 -- 63.3 8.0
06/26/2020 00:00 456.91 0.00 0.00 64.9 8.0
06/25/2020 23:00 456.91 0.00 -- 67.2 8.0
06/25/2020 22:00 456.91 0.00 -- 72.5 8.0
06/25/2020 21:00 456.92 0.00 -- 78.2 8.8
06/25/2020 20:00 456.92 0.00 -- 79.9 9.0
06/25/2020 19:00 456.92 0.00 -- 81.2 8.8
06/25/2020 18:00 456.94 0.00 -- 81.3 9.0
06/25/2020 17:00 456.93 0.00 -- 81.9 9.0
06/25/2020 16:00 456.95 0.00 -- 81.8 9.0
06/25/2020 15:00 456.95 0.00 -- 80.1 9.0
06/25/2020 14:00 456.92 0.00 -- 79.8 8.8
06/25/2020 13:00 456.95 0.00 -- 77.9 9.0
06/25/2020 12:00 456.94 0.00 -- 74.9 8.8
06/25/2020 11:00 456.93 0.00 -- 75.1 9.0
06/25/2020 10:00 456.93 0.00 -- 70.6 9.0
06/25/2020 09:00 456.92 0.00 -- 67.0 9.0
06/25/2020 08:00 456.92 0.00 -- 59.3 9.0
06/25/2020 07:00 456.92 0.00 -- 57.0 9.0
06/25/2020 06:00 456.93 0.00 -- 56.2 9.0
06/25/2020 05:00 456.93 0.00 -- 58.6 9.0
06/25/2020 04:00 456.93 0.00 -- 59.8 9.0
06/25/2020 03:00 456.94 0.00 -- 63.8 9.0
06/25/2020 02:00 456.93 0.00 -- 64.1 9.0
06/25/2020 01:00 456.94 0.00 -- 66.5 9.0
06/25/2020 00:00 456.94 0.00 0.00 67.4 9.0
06/24/2020 23:00 456.94 0.00 -- 69.5 9.0
06/24/2020 22:00 456.94 0.00 -- 73.5 9.0
06/24/2020 21:00 456.95 0.00 -- 79.0 9.0
06/24/2020 20:00 456.96 0.00 -- 82.0 9.5
06/24/2020 19:00 456.96 0.00 -- 84.0 9.5
06/24/2020 18:00 456.95 0.00 -- 85.3 9.0
06/24/2020 17:00 456.95 0.00 -- 82.7 9.0
06/24/2020 16:00 456.95 0.00 -- 81.1 9.0
06/24/2020 15:00 456.94 0.00 -- 78.7 9.0
06/24/2020 14:00 456.94 0.00 -- 74.2 9.0
06/24/2020 13:00 456.94 0.00 -- 72.8 9.0
06/24/2020 12:00 456.94 0.00 -- 72.7 9.0
06/24/2020 11:00 456.94 0.00 -- 71.6 9.0
06/24/2020 10:00 456.94 0.00 -- 70.7 9.0
06/24/2020 09:00 456.94 0.00 -- 70.3 9.0
06/24/2020 08:00 456.94 0.00 -- 68.8 9.0
06/24/2020 07:00 456.94 0.00 -- 68.3 9.0
06/24/2020 06:00 456.94 0.00 -- 67.7 9.0
06/24/2020 05:00 456.95 0.00 -- 68.5 9.0
06/24/2020 04:00 456.95 0.00 -- 69.0 9.0
06/24/2020 03:00 456.95 0.00 -- 70.1 9.0
06/24/2020 02:00 456.95 0.00 -- 71.0 9.0
06/24/2020 01:00 456.95 0.00 -- 74.0 9.0
06/24/2020 00:00 456.95 0.00 0.00 75.8 9.0
06/23/2020 23:00 456.95 0.00 -- 77.5 9.0
06/23/2020 22:00 456.95 0.00 -- 79.6 9.0
06/23/2020 21:00 456.96 0.00 -- 83.0 9.3
06/23/2020 20:00 456.96 0.00 -- 85.9 9.0
06/23/2020 19:00 456.96 0.00 -- 88.4 9.5
06/23/2020 18:00 456.96 0.00 -- 90.9 9.5
06/23/2020 17:00 456.96 0.00 -- 93.1 9.8
06/23/2020 16:00 456.96 0.00 -- 90.3 10.0
06/23/2020 15:00 456.95 0.00 -- 90.3 9.0
06/23/2020 14:00 456.95 0.00 -- 88.0 9.0
06/23/2020 13:00 456.95 0.00 -- 88.5 9.0
06/23/2020 12:00 456.95 0.00 -- 81.6 9.0
06/23/2020 11:00 456.94 0.00 -- 78.0 9.0
06/23/2020 10:00 456.94 0.00 -- 72.1 9.0
06/23/2020 09:00 456.94 0.00 -- 68.2 9.0
06/23/2020 08:00 456.94 0.00 -- 66.7 9.0
06/23/2020 07:00 456.94 0.00 -- 66.7 9.0
06/23/2020 06:00 456.94 0.00 -- 65.6 9.0
06/23/2020 05:00 456.94 0.00 -- 67.4 9.0
06/23/2020 04:00 456.94 0.00 -- 67.6 9.0
06/23/2020 03:00 456.94 0.00 -- 69.0 9.0
06/23/2020 02:00 456.95 0.00 -- 70.1 9.0
06/23/2020 01:00 456.95 0.00 -- 71.9 9.0
06/23/2020 00:00 456.95 0.00 0.00 73.0 9.0
06/22/2020 23:00 456.95 0.00 -- 74.4 9.0
06/22/2020 22:00 456.95 0.00 -- 77.3 9.0
06/22/2020 21:00 456.95 0.00 -- 80.7 9.0
06/22/2020 20:00 456.95 0.00 -- 83.4 9.0
06/22/2020 19:00 456.95 0.00 -- 84.2 9.0
06/22/2020 18:00 456.95 0.00 -- 86.4 9.0
06/22/2020 17:00 456.96 0.00 -- 88.1 9.3
06/22/2020 16:00 456.94 0.00 -- 86.2 9.0
06/22/2020 15:00 456.95 0.00 -- 84.2 9.0
06/22/2020 14:00 456.94 0.00 -- 80.3 9.0
06/22/2020 13:00 456.94 0.00 -- 77.8 9.0
06/22/2020 12:00 456.94 0.00 -- 72.2 9.0
06/22/2020 11:00 456.94 0.00 -- 71.3 9.0
06/22/2020 10:00 456.93 0.00 -- 68.2 9.0
06/22/2020 09:00 456.93 0.00 -- 66.6 9.0
06/22/2020 08:00 456.94 0.00 -- 65.7 9.0
06/22/2020 07:00 456.94 0.00 -- 66.1 9.0
06/22/2020 06:00 456.94 0.00 -- 66.5 9.0
06/22/2020 05:00 456.94 0.00 -- 66.7 9.0
06/22/2020 04:00 456.94 0.00 -- 67.2 9.0
06/22/2020 03:00 456.94 0.00 -- 67.9 9.0
06/22/2020 02:00 456.94 0.00 -- 68.5 9.0
06/22/2020 01:00 456.94 0.00 -- 68.4 9.0
06/22/2020 00:00 456.94 0.00 0.00 70.4 9.0
06/21/2020 23:00 456.94 0.00 -- 71.9 9.0
06/21/2020 22:00 456.94 0.00 -- 71.8 9.0
06/21/2020 21:00 456.94 0.00 -- 71.7 9.0
06/21/2020 20:00 456.94 0.00 -- 71.7 9.0
06/21/2020 19:00 456.94 0.00 -- 71.6 9.0
06/21/2020 18:00 456.94 0.00 -- 71.5 9.0
06/21/2020 17:00 456.93 0.00 -- 71.4 9.0
06/21/2020 16:00 456.93 0.00 -- 71.3 9.0
06/21/2020 15:00 456.93 0.00 -- 71.2 9.0
06/21/2020 14:00 456.93 0.00 -- 71.1 9.0
06/21/2020 13:00 456.93 0.00 -- 71.0 9.0
06/21/2020 12:00 456.93 0.00 -- 70.9 9.0
06/21/2020 11:00 456.93 0.00 -- 70.9 9.0
06/21/2020 10:00 456.93 0.00 -- 70.8 9.0
06/21/2020 09:00 456.93 0.00 -- 70.7 9.0
06/21/2020 08:00 456.93 0.00 -- 70.6 9.0
06/21/2020 07:00 456.92 0.00 -- 70.5 9.0
06/21/2020 06:00 456.92 0.00 -- 70.4 9.0
06/21/2020 05:00 456.92 0.00 -- 70.3 9.0
06/21/2020 04:00 456.92 0.00 -- 70.2 9.0
06/21/2020 03:00 456.92 0.00 -- 70.2 9.0
06/21/2020 02:00 456.92 0.00 -- 71.0 9.0
06/21/2020 01:00 456.92 0.00 -- 73.4 8.0
06/21/2020 00:00 456.92 0.00 0.00 77.8 8.0
06/20/2020 23:00 456.92 0.00 -- 77.8 8.0
06/20/2020 22:00 456.92 0.00 -- 83.0 8.0
06/20/2020 21:00 456.92 0.00 -- 87.0 8.0
06/20/2020 20:00 456.92 0.00 -- 89.0 8.0
06/20/2020 19:00 456.91 0.00 -- 91.5 8.0
06/20/2020 18:00 456.91 0.00 -- 92.4 8.0
06/20/2020 17:00 456.91 0.00 -- 92.0 8.3
06/20/2020 16:00 456.91 0.00 -- 90.0 8.0
06/20/2020 15:00 456.92 0.00 -- 89.1 8.0
06/20/2020 14:00 456.90 0.00 -- 91.8 8.0
06/20/2020 13:00 456.90 0.00 -- 91.8 8.0
06/20/2020 12:00 456.90 0.00 -- 86.2 8.0
06/20/2020 11:00 456.89 0.00 -- 81.3 8.0
06/20/2020 10:00 456.89 0.00 -- 75.7 8.0
06/20/2020 09:00 456.89 0.00 -- 73.3 8.0
06/20/2020 08:00 456.89 0.00 -- 70.1 8.0
06/20/2020 07:00 456.88 0.00 -- 68.1 8.0
06/20/2020 06:00 456.88 0.00 -- 66.8 8.0
06/20/2020 05:00 456.88 0.00 -- 67.4 8.0
06/20/2020 04:00 456.87 0.00 -- 69.1 8.0
06/20/2020 03:00 456.87 0.00 -- 71.1 8.0
06/20/2020 02:00 456.87 0.00 -- 71.1 7.8
06/20/2020 01:00 456.87 0.00 -- 73.6 7.8
06/20/2020 00:00 456.87 0.00 0.00 75.7 7.0
06/19/2020 23:00 456.87 0.00 -- 78.9 7.0
06/19/2020 22:00 456.87 0.00 -- 82.5 7.3
06/19/2020 21:00 456.86 0.00 -- 86.3 7.3
06/19/2020 20:00 456.87 0.00 -- 88.8 7.3
06/19/2020 19:00 456.87 0.00 -- 90.9 7.5
06/19/2020 18:00 456.87 0.00 -- 93.0 7.3
06/19/2020 17:00 456.85 0.00 -- 93.0 7.0
06/19/2020 16:00 456.85 0.00 -- 96.5 7.0
06/19/2020 15:00 456.85 0.00 -- 93.7 7.0
06/19/2020 14:00 456.84 0.00 -- 92.3 7.0
06/19/2020 13:00 456.83 0.00 -- 87.4 7.0
06/19/2020 12:00 456.83 0.00 -- 84.5 7.0
06/19/2020 11:00 456.82 0.00 -- 83.0 7.0
06/19/2020 10:00 456.82 0.00 -- 78.0 13.0
06/19/2020 09:00 456.82 0.00 -- 73.2 13.0
06/19/2020 08:00 456.82 0.00 -- 63.8 13.0
06/19/2020 07:00 456.82 0.00 -- 60.1 13.0
06/19/2020 06:00 456.82 0.00 -- 60.6 13.0
06/19/2020 05:00 456.82 0.00 -- 62.1 13.0
06/19/2020 04:00 456.82 0.00 -- 63.2 13.0
06/19/2020 03:00 456.82 0.00 -- 64.7 13.0
06/19/2020 02:00 456.83 0.00 -- 66.4 13.0
06/19/2020 01:00 456.83 0.00 -- 69.0 13.5
06/19/2020 00:00 456.83 0.00 0.00 70.8 14.0
06/18/2020 23:00 456.84 0.00 -- 75.2 14.0
06/18/2020 22:00 456.84 0.00 -- 78.9 14.0
06/18/2020 21:00 456.84 0.00 -- 84.8 14.0
06/18/2020 20:00 456.85 0.00 -- 88.0 14.0
06/18/2020 19:00 456.85 0.00 -- 89.8 14.0
06/18/2020 18:00 456.86 0.00 -- 91.6 14.8
06/18/2020 17:00 456.85 0.00 -- 93.0 14.3
06/18/2020 16:00 456.85 0.00 -- 92.3 14.5
06/18/2020 15:00 456.86 0.00 -- 91.8 14.0
06/18/2020 14:00 456.84 0.00 -- 88.6 14.0
06/18/2020 13:00 456.84 0.00 -- 86.2 14.0
06/18/2020 12:00 456.84 0.00 -- 85.3 14.0
06/18/2020 11:00 456.84 0.00 -- 83.0 14.0
06/18/2020 10:00 456.84 0.00 -- 76.2 14.0
06/18/2020 09:00 456.83 0.00 -- 68.7 14.0
06/18/2020 08:00 456.83 0.00 -- 59.8 14.0
06/18/2020 07:00 456.84 0.00 -- 56.6 14.0
06/18/2020 06:00 456.84 0.00 -- 56.9 14.0
06/18/2020 05:00 456.84 0.00 -- 57.2 14.0
06/18/2020 04:00 456.84 0.00 -- 59.0 14.0
06/18/2020 03:00 456.84 0.00 -- 61.4 14.0
06/18/2020 02:00 456.84 0.00 -- 62.4 14.0
06/18/2020 01:00 456.85 0.00 -- 64.3 14.0
06/18/2020 00:00 456.85 0.00 0.00 67.7 14.0
06/17/2020 23:00 456.85 0.00 -- 70.5 14.0
06/17/2020 22:00 456.85 0.00 -- 74.7 14.0
06/17/2020 21:00 456.86 0.00 -- 81.4 15.0
06/17/2020 20:00 456.86 0.00 -- 84.7 15.0
06/17/2020 19:00 456.86 0.00 -- 86.2 15.0
06/17/2020 18:00 456.86 0.00 -- 89.4 15.0
06/17/2020 17:00 456.86 0.00 -- 86.5 15.0
06/17/2020 16:00 456.87 0.00 -- 87.5 15.0
06/17/2020 15:00 456.87 0.00 -- 85.5 14.8
06/17/2020 14:00 456.86 0.00 -- 85.5 14.8
06/17/2020 13:00 456.86 0.00 -- 82.8 14.5
06/17/2020 12:00 456.85 0.00 -- 77.8 14.0
06/17/2020 11:00 456.85 0.00 -- 74.8 14.0
06/17/2020 10:00 456.85 0.00 -- 68.1 14.0
06/17/2020 09:00 456.85 0.00 -- 63.1 14.0
06/17/2020 08:00 456.85 0.00 -- 56.2 14.0
06/17/2020 07:00 456.85 0.00 -- 52.1 14.0
06/17/2020 06:00 456.85 0.00 -- 51.8 14.0
06/17/2020 05:00 456.85 0.00 -- 53.2 14.0
06/17/2020 04:00 456.86 0.00 -- 54.4 14.3
06/17/2020 03:00 456.86 0.00 -- 56.7 15.0
06/17/2020 02:00 456.86 0.00 -- 58.1 15.0
06/17/2020 01:00 456.86 0.00 -- 59.6 14.8
06/17/2020 00:00 456.86 0.00 0.00 63.2 14.8
06/16/2020 23:00 456.86 0.00 -- 65.3 15.0
06/16/2020 22:00 456.86 0.00 -- 70.5 15.0
06/16/2020 21:00 456.86 0.00 -- 74.9 15.0
06/16/2020 20:00 456.87 0.00 -- 79.9 15.0
06/16/2020 19:00 456.87 0.00 -- 81.5 15.0
06/16/2020 18:00 456.87 0.00 -- 83.9 15.0
06/16/2020 17:00 456.87 0.00 -- 83.1 15.0
06/16/2020 16:00 456.86 0.00 -- 82.1 15.0
06/16/2020 15:00 456.86 0.00 -- 82.0 15.0
06/16/2020 14:00 456.85 0.00 -- 80.4 14.5
06/16/2020 13:00 456.86 0.00 -- 77.8 14.0
06/16/2020 12:00 456.86 0.00 -- 75.4 14.3
06/16/2020 11:00 456.86 0.00 -- 74.1 14.5
06/16/2020 10:00 456.85 0.00 -- 66.7 14.0
06/16/2020 09:00 456.85 0.00 -- 61.1 14.3
06/16/2020 08:00 456.85 0.00 -- 54.6 14.8
06/16/2020 07:00 456.86 0.00 -- 49.9 15.0
06/16/2020 06:00 456.86 0.00 -- 50.3 15.0
06/16/2020 05:00 456.86 0.00 -- 49.5 15.0
06/16/2020 04:00 456.86 0.00 -- 50.8 15.0
06/16/2020 03:00 456.86 0.00 -- 51.8 15.0
06/16/2020 02:00 456.87 0.00 -- 53.8 15.0
06/16/2020 01:00 456.87 0.00 -- 54.5 15.0
06/16/2020 00:00 456.87 0.00 0.00 56.9 15.0
06/15/2020 23:00 456.87 0.00 -- 58.9 15.0
06/15/2020 22:00 456.87 0.00 -- 62.6 15.0
06/15/2020 21:00 456.88 0.00 -- 68.3 15.0
06/15/2020 20:00 456.88 0.00 -- 70.9 15.0
06/15/2020 19:00 456.87 0.00 -- 73.2 15.0
06/15/2020 18:00 456.87 0.00 -- 74.9 15.0
06/15/2020 17:00 456.87 0.00 -- 75.2 15.0
06/15/2020 16:00 456.87 0.00 -- 72.9 15.0
06/15/2020 15:00 456.88 0.00 -- 72.1 15.0
06/15/2020 14:00 456.88 0.00 -- 71.5 15.0
06/15/2020 13:00 456.88 0.00 -- 69.6 15.0
06/15/2020 12:00 456.87 0.00 -- 68.8 15.0
06/15/2020 11:00 456.87 0.00 -- 68.8 15.0
06/15/2020 10:00 456.88 0.00 -- 63.8 15.0
06/15/2020 09:00 456.87 0.00 -- 60.0 15.0
06/15/2020 08:00 456.88 0.00 -- 55.4 15.0
06/15/2020 07:00 456.87 0.00 -- 53.5 15.0
06/15/2020 06:00 456.88 0.00 -- 54.1 15.0
06/15/2020 05:00 456.88 0.00 -- 54.1 15.0
06/15/2020 04:00 456.88 0.00 -- 55.5 15.0
06/15/2020 03:00 456.88 0.00 -- 55.3 15.0
06/15/2020 02:00 456.88 0.00 -- 55.5 15.5
06/15/2020 01:00 456.88 0.00 -- 55.7 16.0
06/15/2020 00:00 456.88 0.00 0.00 57.7 16.0
06/14/2020 23:00 456.89 0.00 -- 58.7 16.0
06/14/2020 22:00 456.89 0.00 -- 60.7 16.0
06/14/2020 21:00 456.89 0.00 -- 64.4 16.0
06/14/2020 20:00 456.89 0.00 -- 66.4 16.0
06/14/2020 19:00 456.89 0.00 -- 67.2 16.0
06/14/2020 18:00 456.89 0.00 -- 67.9 16.0
06/14/2020 17:00 456.89 0.00 -- 68.2 16.0
06/14/2020 16:00 456.88 0.00 -- 69.9 16.0
06/14/2020 15:00 456.89 0.00 -- 66.2 16.0
06/14/2020 14:00 456.89 0.00 -- 70.2 16.0
06/14/2020 13:00 456.89 0.00 -- 69.0 16.0
06/14/2020 12:00 456.89 0.00 -- 64.1 16.0
06/14/2020 11:00 456.89 0.00 -- 64.0 16.0
06/14/2020 10:00 456.89 0.00 -- 61.1 16.0
06/14/2020 09:00 456.89 0.00 -- 55.0 16.0
06/14/2020 08:00 456.89 0.00 -- 51.3 16.0
06/14/2020 07:00 456.89 0.00 -- 49.9 16.0
06/14/2020 06:00 456.89 0.00 -- 50.9 16.0
06/14/2020 05:00 456.90 0.00 -- 52.1 16.0
06/14/2020 04:00 456.90 0.00 -- 52.7 16.0
06/14/2020 03:00 456.90 0.00 -- 53.4 16.0
06/14/2020 02:00 456.90 0.00 -- 54.1 16.0
06/14/2020 01:00 456.90 0.00 -- 54.8 16.0
06/14/2020 00:00 456.90 0.00 0.00 54.8 16.0
06/13/2020 23:00 456.90 0.00 -- 55.1 16.0
06/13/2020 22:00 456.91 0.00 -- 56.6 16.0
06/13/2020 21:00 456.91 0.00 -- 59.6 16.3
06/13/2020 20:00 456.91 0.00 -- 60.5 16.8
06/13/2020 19:00 456.91 0.00 -- 60.6 16.8
06/13/2020 18:00 456.91 0.00 -- 61.8 16.8
06/13/2020 17:00 456.91 0.00 -- 63.2 16.8
06/13/2020 16:00 456.92 0.00 -- 67.0 17.0
06/13/2020 15:00 456.92 0.00 -- 63.8 17.0
06/13/2020 14:00 456.92 0.00 -- 64.1 17.0
06/13/2020 13:00 456.91 0.00 -- 65.2 17.0
06/13/2020 12:00 456.91 0.00 -- 62.1 17.0
06/13/2020 11:00 456.91 0.00 -- 63.1 17.0
06/13/2020 10:00 456.91 0.00 -- 63.2 17.0
06/13/2020 09:00 456.91 0.00 -- 60.9 17.0
06/13/2020 08:00 456.91 0.00 -- 54.8 17.0
06/13/2020 07:00 456.91 0.00 -- 50.7 17.0
06/13/2020 06:00 456.92 0.00 -- 52.0 17.0
06/13/2020 05:00 456.92 0.00 -- 52.3 17.0
06/13/2020 04:00 456.92 0.00 -- 55.1 17.0
06/13/2020 03:00 456.92 0.00 -- 55.8 17.0
06/13/2020 02:00 456.92 0.00 -- 58.4 17.0
06/13/2020 01:00 456.92 0.00 -- 60.8 17.0
06/13/2020 00:00 456.93 0.00 0.00 64.2 17.5
06/12/2020 23:00 456.93 0.00 -- 65.5 17.8
06/12/2020 22:00 456.93 0.00 -- 66.5 17.8
06/12/2020 21:00 456.93 0.00 -- 72.1 18.0
06/12/2020 20:00 456.93 0.00 -- 75.9 18.3
06/12/2020 19:00 456.94 0.00 -- 77.5 18.3
06/12/2020 18:00 456.94 0.00 -- 79.4 18.0
06/12/2020 17:00 456.95 0.00 -- 79.3 18.8
06/12/2020 16:00 456.95 0.00 -- 81.5 18.3
06/12/2020 15:00 456.96 0.00 -- 79.8 18.5
06/12/2020 14:00 456.95 0.00 -- 78.5 18.0
06/12/2020 13:00 456.94 0.00 -- 77.8 17.5
06/12/2020 12:00 456.93 0.00 -- 75.8 17.5
06/12/2020 11:00 456.93 0.00 -- 72.3 17.0
06/12/2020 10:00 456.92 0.00 -- 69.1 17.0
06/12/2020 09:00 456.92 0.00 -- 62.4 17.0
06/12/2020 08:00 456.92 0.00 -- 57.9 17.0
06/12/2020 07:00 456.92 0.00 -- 55.6 17.0
06/12/2020 06:00 456.92 0.00 -- 56.7 17.0
06/12/2020 05:00 456.93 0.00 -- 57.3 17.0
06/12/2020 04:00 456.93 0.00 -- 58.4 17.0
06/12/2020 03:00 456.92 0.00 -- 59.3 17.0
06/12/2020 02:00 456.93 0.00 -- 63.4 17.3
06/12/2020 01:00 456.93 0.00 -- 65.0 17.3
06/12/2020 00:00 456.93 0.00 0.00 68.8 17.0
06/11/2020 23:00 456.92 0.00 -- 71.2 17.3
06/11/2020 22:00 456.93 0.00 -- 73.3 17.3
06/11/2020 21:00 456.93 0.00 -- 74.8 17.0
06/11/2020 20:00 456.92 0.00 -- 74.5 17.0
06/11/2020 19:00 456.93 0.00 -- 75.0 17.0
06/11/2020 18:00 456.92 0.00 -- 78.8 17.0
06/11/2020 17:00 456.92 0.00 -- 74.8 17.0
06/11/2020 16:00 456.93 0.00 -- 71.3 17.0
06/11/2020 15:00 456.92 0.00 -- 64.2 17.0
06/11/2020 14:00 456.92 0.03 -- 60.1 17.0
06/11/2020 13:00 456.92 0.08 -- 58.4 17.0
06/11/2020 12:00 456.92 0.04 -- 57.9 17.0
06/11/2020 11:00 456.91 0.00 -- 57.5 17.0
06/11/2020 10:00 456.91 0.01 -- 56.4 17.0
06/11/2020 09:00 456.91 0.00 -- 56.3 17.0
06/11/2020 08:00 456.91 0.02 -- 55.8 17.0
06/11/2020 07:00 456.91 0.01 -- 55.0 17.0
06/11/2020 06:00 456.91 0.00 -- 55.6 17.0
06/11/2020 05:00 456.91 0.00 -- 55.6 17.0
06/11/2020 04:00 456.91 0.00 -- 55.1 17.0
06/11/2020 03:00 456.92 0.00 -- 55.3 17.0
06/11/2020 02:00 456.92 0.00 -- 55.9 17.0
06/11/2020 01:00 456.92 0.00 -- 56.5 17.0
06/11/2020 00:00 456.92 0.00 0.19 57.5 17.0
06/10/2020 23:00 456.92 0.00 -- 58.2 17.0
06/10/2020 22:00 456.92 0.00 -- 59.6 17.0
06/10/2020 21:00 456.92 0.00 -- 62.5 17.0
06/10/2020 20:00 456.92 0.00 -- 65.4 17.3
06/10/2020 19:00 456.92 0.00 -- 68.0 17.0
06/10/2020 18:00 456.93 0.00 -- 69.5 17.0
06/10/2020 17:00 456.94 0.00 -- 73.2 17.8
06/10/2020 16:00 456.93 0.00 -- 72.6 17.3
06/10/2020 15:00 456.93 0.00 -- 74.2 17.5
06/10/2020 14:00 456.93 0.00 -- 73.6 17.5
06/10/2020 13:00 456.93 0.00 -- 71.0 17.0
06/10/2020 12:00 456.92 0.00 -- 69.9 17.0
06/10/2020 11:00 456.92 0.00 -- 65.7 17.0
06/10/2020 10:00 456.92 0.00 -- 61.5 17.0
06/10/2020 09:00 456.92 0.00 -- 57.7 17.0
06/10/2020 08:00 456.93 0.00 -- 54.5 17.0
06/10/2020 07:00 456.93 0.00 -- 54.1 17.0
06/10/2020 06:00 456.93 0.00 -- 52.9 17.0
06/10/2020 05:00 456.93 0.00 -- 53.4 17.0
06/10/2020 04:00 456.93 0.00 -- 53.2 17.0
06/10/2020 03:00 456.93 0.00 -- 54.5 17.0
06/10/2020 02:00 456.93 0.00 -- 53.8 17.5
06/10/2020 01:00 456.93 0.00 -- 54.2 17.8
06/10/2020 00:00 456.93 0.00 0.00 57.4 17.8
06/09/2020 23:00 456.93 0.00 -- 58.6 17.8
06/09/2020 22:00 456.93 0.00 -- 62.2 18.0
06/09/2020 21:00 456.93 0.00 -- 66.9 18.0
06/09/2020 20:00 456.93 0.00 -- 68.6 18.0
06/09/2020 19:00 456.93 0.00 -- 70.7 18.0
06/09/2020 18:00 456.93 0.00 -- 71.6 17.5
06/09/2020 17:00 456.93 0.00 -- 68.5 17.5
06/09/2020 16:00 456.93 0.00 -- 68.1 17.0
06/09/2020 15:00 456.92 0.00 -- 64.9 17.0
06/09/2020 14:00 456.92 0.00 -- 67.8 17.0
06/09/2020 13:00 456.92 0.00 -- 64.7 17.0
06/09/2020 12:00 456.92 0.00 -- 64.8 17.0
06/09/2020 11:00 456.92 0.00 -- 65.4 17.0
06/09/2020 10:00 456.92 0.00 -- 61.8 17.0
06/09/2020 09:00 456.92 0.00 -- 59.7 17.0
06/09/2020 08:00 456.92 0.00 -- 59.2 17.0
06/09/2020 07:00 456.92 0.00 -- 59.0 17.0
06/09/2020 06:00 456.92 0.00 -- 58.9 17.0
06/09/2020 05:00 456.92 0.00 -- 58.6 17.0
06/09/2020 04:00 456.92 0.00 -- 60.6 17.0
06/09/2020 03:00 456.91 0.00 -- 62.7 17.0
06/09/2020 02:00 456.91 0.00 -- 61.1 17.0
06/09/2020 01:00 456.91 0.00 -- 61.4 17.0
06/09/2020 00:00 456.91 0.00 0.00 63.1 16.8
06/08/2020 23:00 456.91 0.00 -- 63.0 16.8
06/08/2020 22:00 456.90 0.00 -- 65.7 16.0
06/08/2020 21:00 456.90 0.00 -- 69.1 16.0
06/08/2020 20:00 456.90 0.00 -- 71.5 16.5
06/08/2020 19:00 456.90 0.00 -- 73.2 16.0
06/08/2020 18:00 456.89 0.00 -- 74.7 16.0
06/08/2020 17:00 456.88 0.00 -- 74.9 15.8
06/08/2020 16:00 456.87 0.00 -- 75.0 15.3
06/08/2020 15:00 456.88 0.00 -- 73.2 15.8
06/08/2020 14:00 456.88 0.00 -- 71.1 18.8
06/08/2020 13:00 456.89 0.00 -- 69.8 23.3
06/08/2020 12:00 456.88 0.00 -- 67.5 22.8
06/08/2020 11:00 456.87 0.00 -- 66.2 23.3
06/08/2020 10:00 456.88 0.00 -- 65.0 23.0
06/08/2020 09:00 456.87 0.00 -- 59.5 23.0
06/08/2020 08:00 456.88 0.00 -- 51.7 23.0
06/08/2020 07:00 456.88 0.00 -- 47.4 23.0
06/08/2020 06:00 456.88 0.00 -- 46.6 23.0
06/08/2020 05:00 456.88 0.00 -- 48.6 23.0
06/08/2020 04:00 456.88 0.00 -- 49.1 23.0
06/08/2020 03:00 456.88 0.00 -- 49.4 23.0
06/08/2020 02:00 456.88 0.00 -- 51.2 23.3
06/08/2020 01:00 456.88 0.00 -- 54.1 23.3
06/08/2020 00:00 456.89 0.00 0.00 57.0 23.0
06/07/2020 23:00 456.89 0.00 -- 57.4 23.0
06/07/2020 22:00 456.89 0.00 -- 59.2 23.0
06/07/2020 21:00 456.89 0.00 -- 61.0 23.0
06/07/2020 20:00 456.89 0.00 -- 62.8 23.0
06/07/2020 19:00 456.89 0.00 -- 64.5 23.0
06/07/2020 18:00 456.89 0.00 -- 66.3 23.0
06/07/2020 17:00 -- 0.00 -- -- 24.0
06/07/2020 16:00 456.89 0.00 -- 66.6 23.0
06/07/2020 15:00 456.89 0.00 -- 65.8 24.0
06/07/2020 14:00 456.89 0.00 -- 64.3 24.0
06/07/2020 13:00 456.89 0.00 -- 65.4 24.0
06/07/2020 12:00 456.90 0.00 -- 62.6 23.8
06/07/2020 11:00 456.90 0.00 -- 61.1 24.0
06/07/2020 10:00 456.90 0.00 -- 59.5 24.0
06/07/2020 09:00 456.89 0.00 -- 60.8 24.0
06/07/2020 08:00 456.89 0.00 -- 60.0 24.0
06/07/2020 07:00 456.89 0.00 -- 59.1 24.0
06/07/2020 06:00 456.90 0.00 -- 60.8 24.0
06/07/2020 05:00 456.89 0.00 -- 60.9 24.0
06/07/2020 04:00 456.90 0.00 -- 60.3 24.0
06/07/2020 03:00 456.90 0.00 -- 60.2 24.0
06/07/2020 02:00 456.90 0.00 -- 60.9 24.0
06/07/2020 01:00 456.90 0.00 -- 62.6 24.0
06/07/2020 00:00 456.90 0.00 0.00 66.1 25.0
06/06/2020 23:00 456.90 0.00 -- 68.5 24.8
06/06/2020 22:00 456.91 0.00 -- 68.5 25.0
06/06/2020 21:00 456.90 0.00 -- 72.4 24.3
06/06/2020 20:00 456.91 0.00 -- 75.7 24.5
06/06/2020 19:00 456.90 0.00 -- 75.2 24.3
06/06/2020 18:00 456.90 0.00 -- 76.0 24.0
06/06/2020 17:00 456.90 0.00 -- 72.1 24.3
06/06/2020 16:00 456.90 0.00 -- 73.5 24.0
06/06/2020 15:00 456.90 0.00 -- 75.9 24.0
06/06/2020 14:00 456.89 0.00 -- 73.6 24.3
06/06/2020 13:00 456.89 0.00 -- 81.8 24.0
06/06/2020 12:00 456.89 0.00 -- 76.1 23.8
06/06/2020 11:00 456.89 0.00 -- 71.9 24.0
06/06/2020 10:00 456.89 0.00 -- 74.5 23.3
06/06/2020 09:00 456.88 0.00 -- 67.1 23.3
06/06/2020 08:00 456.89 0.00 -- 63.9 23.3
06/06/2020 07:00 456.88 0.00 -- 63.1 23.3
06/06/2020 06:00 456.88 0.00 -- 63.4 23.3
06/06/2020 05:00 456.89 0.00 -- 64.7 23.8
06/06/2020 04:00 456.89 0.00 -- 64.9 23.3
06/06/2020 03:00 456.88 0.00 -- 65.4 23.5
06/06/2020 02:00 456.89 0.00 -- 66.1 23.3
06/06/2020 01:00 456.89 0.00 -- 67.5 23.3
06/06/2020 00:00 456.89 0.01 0.00 68.8 23.8
06/05/2020 23:00 456.89 0.00 -- 72.7 23.8
06/05/2020 22:00 456.89 0.00 -- 71.9 24.0
06/05/2020 21:00 456.89 0.00 -- 75.4 24.0
06/05/2020 20:00 456.90 0.00 -- 76.2 24.0
06/05/2020 19:00 456.89 0.00 -- 76.9 23.8
06/05/2020 18:00 456.90 0.00 -- 76.8 23.5
06/05/2020 17:00 456.89 0.08 -- 73.4 23.3
06/05/2020 16:00 456.88 0.01 -- 78.1 23.3
06/05/2020 15:00 456.88 0.00 -- 85.3 23.0
06/05/2020 14:00 456.87 0.00 -- 83.0 22.8
06/05/2020 13:00 456.87 0.00 -- 78.5 22.5
06/05/2020 12:00 456.87 0.00 -- 78.0 22.0
06/05/2020 11:00 456.86 0.00 -- 72.0 22.0
06/05/2020 10:00 456.86 0.00 -- 71.4 22.0
06/05/2020 09:00 456.87 0.00 -- 64.2 22.0
06/05/2020 08:00 456.86 0.00 -- 61.8 22.0
06/05/2020 07:00 456.86 0.00 -- 60.3 22.0
06/05/2020 06:00 456.86 0.00 -- 60.4 22.0
06/05/2020 05:00 456.86 0.00 -- 59.4 22.0
06/05/2020 04:00 456.86 0.00 -- 60.0 22.0
06/05/2020 03:00 456.87 0.00 -- 62.6 22.0
06/05/2020 02:00 456.87 0.00 -- 62.9 22.0
06/05/2020 01:00 456.87 0.00 -- 63.4 22.5
06/05/2020 00:00 456.87 0.00 0.10 65.1 23.0
06/04/2020 23:00 456.87 0.00 -- 68.7 23.0
06/04/2020 22:00 456.88 0.00 -- 72.0 23.0
06/04/2020 21:00 456.88 0.00 -- 78.0 23.0
06/04/2020 20:00 456.88 0.00 -- 81.4 23.0
06/04/2020 19:00 456.88 0.00 -- 83.1 23.0
06/04/2020 18:00 456.88 0.00 -- 81.4 23.0
06/04/2020 17:00 456.88 0.00 -- 81.1 23.3
06/04/2020 16:00 456.87 0.00 -- 79.5 22.8
06/04/2020 15:00 456.88 0.00 -- 78.2 22.3
06/04/2020 14:00 456.89 0.00 -- 78.5 22.5
06/04/2020 13:00 456.88 0.00 -- 78.5 22.5
06/04/2020 12:00 456.87 0.00 -- 78.3 22.0
06/04/2020 11:00 456.86 0.00 -- 74.0 22.0
06/04/2020 10:00 456.86 0.00 -- 71.4 22.0
06/04/2020 09:00 456.86 0.00 -- 62.0 22.0
06/04/2020 08:00 456.86 0.00 -- 54.4 22.0
06/04/2020 07:00 456.86 0.00 -- 50.6 22.0
06/04/2020 06:00 456.87 0.00 -- 51.0 22.0
06/04/2020 05:00 456.86 0.00 -- 52.1 22.0
06/04/2020 04:00 456.87 0.00 -- 54.0 22.0
06/04/2020 03:00 456.87 0.00 -- 53.5 22.5
06/04/2020 02:00 456.87 0.00 -- 54.7 22.0
06/04/2020 01:00 456.87 0.00 -- 56.4 22.8
06/04/2020 00:00 456.87 0.00 0.00 59.1 22.8
06/03/2020 23:00 456.87 0.00 -- 59.2 23.0
06/03/2020 22:00 456.87 0.00 -- 62.7 23.0
06/03/2020 21:00 456.87 0.00 -- 63.6 22.5
06/03/2020 20:00 456.87 0.00 -- 65.3 22.5
06/03/2020 19:00 456.87 0.00 -- 68.9 22.8
06/03/2020 18:00 456.87 0.00 -- 68.0 23.0
06/03/2020 17:00 456.87 0.00 -- 69.2 23.0
06/03/2020 16:00 456.87 0.00 -- 69.2 23.0
06/03/2020 15:00 456.87 0.00 -- 68.7 23.0
06/03/2020 14:00 456.87 0.00 -- 68.5 23.0
06/03/2020 13:00 456.87 0.00 -- 68.1 22.8
06/03/2020 12:00 456.87 0.00 -- 66.9 22.5
06/03/2020 11:00 456.87 0.00 -- 63.2 22.3
06/03/2020 10:00 456.87 0.00 -- 59.1 22.8
06/03/2020 09:00 456.87 0.00 -- 55.3 23.0
06/03/2020 08:00 456.87 0.00 -- 53.5 23.0
06/03/2020 07:00 456.87 0.00 -- 53.4 23.0
06/03/2020 06:00 456.87 0.00 -- 52.6 23.0
06/03/2020 05:00 456.87 0.00 -- 52.9 23.0
06/03/2020 04:00 456.87 0.00 -- 53.6 23.0
06/03/2020 03:00 456.88 0.00 -- 53.2 23.0
06/03/2020 02:00 456.87 0.00 -- 53.2 23.0
06/03/2020 01:00 456.88 0.00 -- 55.4 23.0
06/03/2020 00:00 456.88 0.00 0.00 55.3 23.0
06/02/2020 23:00 456.88 0.00 -- 57.2 23.0
06/02/2020 22:00 456.88 0.00 -- 58.1 23.0
06/02/2020 21:00 456.88 0.00 -- 60.0 23.0
06/02/2020 20:00 456.88 0.00 -- 60.8 23.0
06/02/2020 19:00 456.88 0.00 -- 62.5 23.0
06/02/2020 18:00 456.89 0.00 -- 64.1 23.3
06/02/2020 17:00 456.88 0.00 -- 64.9 23.5
06/02/2020 16:00 456.89 0.00 -- 64.7 23.5
06/02/2020 15:00 456.89 0.00 -- 62.6 24.3
06/02/2020 14:00 456.89 0.00 -- 65.8 23.3
06/02/2020 13:00 456.88 0.00 -- 63.9 23.0
06/02/2020 12:00 456.88 0.00 -- 61.5 23.0
06/02/2020 11:00 456.88 0.00 -- 60.3 23.0
06/02/2020 10:00 456.88 0.00 -- 54.6 23.0
06/02/2020 09:00 456.88 0.00 -- 50.0 23.0
06/02/2020 08:00 456.88 0.00 -- 44.1 23.0
06/02/2020 07:00 456.88 0.00 -- 39.9 23.3
06/02/2020 06:00 456.89 0.00 -- 38.5 23.3
06/02/2020 05:00 456.88 0.00 -- 38.1 23.0
06/02/2020 04:00 456.89 0.00 -- 40.1 23.8
06/02/2020 03:00 456.89 0.00 -- 42.1 23.5
06/02/2020 02:00 456.89 0.00 -- 43.3 23.8
06/02/2020 01:00 456.89 0.00 -- 46.1 24.0
06/02/2020 00:00 456.89 0.00 0.00 48.0 24.0
06/01/2020 23:00 456.90 0.00 -- 52.3 24.0
06/01/2020 22:00 456.89 0.00 -- 52.9 24.0
06/01/2020 21:00 456.90 0.00 -- 55.4 24.8
06/01/2020 20:00 456.90 0.00 -- 58.2 25.0
06/01/2020 19:00 456.93 0.00 -- 60.2 25.3
06/01/2020 18:00 456.91 0.00 -- 61.1 25.0
06/01/2020 17:00 456.91 0.00 -- 60.3 25.3
06/01/2020 16:00 456.91 0.00 -- 58.8 25.0
06/01/2020 15:00 456.92 0.00 -- 59.8 25.8
06/01/2020 14:00 456.91 0.00 -- 60.1 25.0
06/01/2020 13:00 456.91 0.00 -- 59.5 25.0
06/01/2020 12:00 456.90 0.00 -- 57.7 24.8
06/01/2020 11:00 456.92 0.00 -- 56.5 25.3
06/01/2020 10:00 456.92 0.00 -- 54.2 25.0
06/01/2020 09:00 456.91 0.00 -- 50.1 25.0
06/01/2020 08:00 456.91 0.00 -- 41.1 25.0
06/01/2020 07:00 456.92 0.00 -- 34.8 25.3
06/01/2020 06:00 456.92 0.00 -- 37.7 25.5
06/01/2020 05:00 456.92 0.00 -- 35.6 26.0
06/01/2020 04:00 456.92 0.00 -- 37.9 26.0
06/01/2020 03:00 456.93 0.00 -- 38.6 26.0
06/01/2020 02:00 456.92 0.00 -- 41.0 26.0
06/01/2020 01:00 456.93 0.00 -- 42.1 26.0
06/01/2020 00:00 456.94 0.00 0.00 45.3 26.8
05/31/2020 23:00 456.93 0.00 -- 47.2 26.5
05/31/2020 22:00 456.94 0.00 -- 48.4 27.0
05/31/2020 21:00 456.93 0.00 -- 50.8 26.8
05/31/2020 20:00 456.96 0.00 -- 51.1 27.3
05/31/2020 19:00 456.96 0.00 -- 57.1 27.8
05/31/2020 18:00 456.98 0.00 -- 59.6 28.5
05/31/2020 17:00 456.92 0.00 -- 60.1 27.3
05/31/2020 16:00 456.93 0.00 -- 59.9 27.5
05/31/2020 15:00 456.95 0.00 -- 57.2 27.3
05/31/2020 14:00 456.96 0.00 -- 56.7 28.5
05/31/2020 13:00 456.97 0.00 -- 56.7 28.8
05/31/2020 12:00 456.96 0.00 -- 56.3 28.8
05/31/2020 11:00 456.97 0.00 -- 53.9 28.8
05/31/2020 10:00 456.96 0.00 -- 52.8 27.3
05/31/2020 09:00 456.96 0.00 -- 52.9 28.5
05/31/2020 08:00 456.96 0.00 -- 53.1 29.3
05/31/2020 07:00 456.98 0.00 -- 53.8 29.0
05/31/2020 06:00 456.97 0.00 -- 55.5 29.5
05/31/2020 05:00 456.99 0.00 -- 58.3 29.5
05/31/2020 04:00 456.99 0.00 -- 61.2 30.0
05/31/2020 03:00 456.98 0.00 -- 62.8 30.0
05/31/2020 02:00 456.99 0.00 -- 63.6 30.8
05/31/2020 01:00 456.99 0.00 -- 63.2 30.5
05/31/2020 00:00 456.99 0.00 0.00 59.9 30.8
05/30/2020 23:00 456.99 0.00 -- 59.2 31.0
05/30/2020 22:00 457.00 0.00 -- 62.2 31.3
05/30/2020 21:00 457.00 0.00 -- 69.4 31.8
05/30/2020 20:00 457.00 0.00 -- 72.2 32.3
05/30/2020 19:00 457.01 0.00 -- 74.5 32.3
05/30/2020 18:00 457.01 0.00 -- 76.1 32.5
05/30/2020 17:00 457.01 0.00 -- 75.9 32.8
05/30/2020 16:00 457.02 0.00 -- 73.6 33.0
05/30/2020 15:00 457.02 0.00 -- 76.2 33.0
05/30/2020 14:00 456.99 0.00 -- 73.8 32.3
05/30/2020 13:00 457.02 0.00 -- 76.0 33.0
05/30/2020 12:00 457.01 0.00 -- 73.8 33.0
05/30/2020 11:00 457.03 0.00 -- 73.8 33.8
05/30/2020 10:00 457.03 0.00 -- 73.1 33.5
05/30/2020 09:00 457.01 0.00 -- 68.8 33.0
05/30/2020 08:00 457.02 0.00 -- 69.2 34.0
05/30/2020 07:00 457.02 0.00 -- 68.4 33.0
05/30/2020 06:00 457.02 0.00 -- 67.9 33.3
05/30/2020 05:00 457.02 0.00 -- 67.9 33.5
05/30/2020 04:00 457.02 0.01 -- 68.3 34.0
05/30/2020 03:00 457.03 0.04 -- 68.9 34.3
05/30/2020 02:00 457.02 0.00 -- 71.8 34.0
05/30/2020 01:00 457.03 0.00 -- 72.8 34.0
05/30/2020 00:00 457.03 0.00 0.05 74.9 34.0
05/29/2020 23:00 457.04 0.00 -- 77.1 34.8
05/29/2020 22:00 457.04 0.00 -- 79.9 35.3
05/29/2020 21:00 457.04 0.00 -- 80.7 35.5
05/29/2020 20:00 457.06 0.00 -- 82.7 37.5
05/29/2020 19:00 457.06 0.00 -- 85.7 37.5
05/29/2020 18:00 457.06 0.00 -- 87.7 37.0
05/29/2020 17:00 457.06 0.00 -- 85.6 37.0
05/29/2020 16:00 457.05 0.03 -- 82.1 36.8
05/29/2020 15:00 457.05 0.00 -- 87.2 36.5
05/29/2020 14:00 457.06 0.00 -- 84.2 38.0
05/29/2020 13:00 457.06 0.00 -- 83.3 38.0
05/29/2020 12:00 457.06 0.00 -- 81.2 39.5
05/29/2020 11:00 457.06 0.00 -- 78.5 40.8
05/29/2020 10:00 457.07 0.00 -- 75.8 40.3
05/29/2020 09:00 457.06 0.00 -- 73.1 40.0
05/29/2020 08:00 457.06 0.00 -- 71.5 40.0
05/29/2020 07:00 457.06 0.01 -- 71.1 40.8
05/29/2020 06:00 457.06 0.00 -- 70.8 40.8
05/29/2020 05:00 457.07 0.00 -- 70.0 41.0
05/29/2020 04:00 457.07 0.00 -- 70.0 41.3
05/29/2020 03:00 457.07 0.00 -- 70.9 41.5
05/29/2020 02:00 457.08 0.00 -- 71.9 42.3
05/29/2020 01:00 457.09 0.00 -- 74.1 42.8
05/29/2020 00:00 457.08 0.00 0.04 74.8 42.5
05/28/2020 23:00 457.09 0.00 -- 75.8 43.3
05/28/2020 22:00 457.10 0.00 -- 76.7 44.0
05/28/2020 21:00 457.11 0.00 -- 78.9 44.5
05/28/2020 20:00 457.13 0.00 -- 80.7 46.8
05/28/2020 19:00 457.12 0.00 -- 83.3 46.0
05/28/2020 18:00 457.13 0.00 -- 83.8 48.3
05/28/2020 17:00 457.13 0.00 -- 86.5 47.8
05/28/2020 16:00 457.14 0.00 -- 87.1 47.8
05/28/2020 15:00 457.13 0.00 -- 85.1 49.3
05/28/2020 14:00 457.15 0.00 -- 85.6 49.5
05/28/2020 13:00 457.16 0.00 -- 83.9 50.0
05/28/2020 12:00 457.16 0.00 -- 80.6 50.3
05/28/2020 11:00 457.17 0.00 -- 78.2 47.5
05/28/2020 10:00 457.16 0.00 -- 72.2 37.8
05/28/2020 09:00 457.16 0.00 -- 69.5 38.0
05/28/2020 08:00 457.16 0.00 -- 66.5 38.3
05/28/2020 07:00 457.17 0.00 -- 67.8 38.5
05/28/2020 06:00 457.17 0.00 -- 68.8 38.3
05/28/2020 05:00 457.17 0.00 -- 70.0 38.5
05/28/2020 04:00 457.17 0.00 -- 66.3 38.3
05/28/2020 03:00 457.16 0.00 -- 68.2 38.5
05/28/2020 02:00 457.17 0.00 -- 73.8 39.0
05/28/2020 01:00 457.17 0.00 -- 75.2 39.3
05/28/2020 00:00 457.17 0.00 0.00 71.5 39.0
05/27/2020 23:00 457.18 0.00 -- 73.8 39.3
05/27/2020 22:00 457.18 0.00 -- 77.1 39.8
05/27/2020 21:00 457.18 0.00 -- 84.7 40.0
05/27/2020 20:00 457.18 0.00 -- 89.5 39.8
05/27/2020 19:00 457.18 0.00 -- 92.1 40.0
05/27/2020 18:00 457.18 0.00 -- 94.6 40.0
05/27/2020 17:00 457.18 0.00 -- 96.2 40.3
05/27/2020 16:00 457.19 0.00 -- 95.7 40.8
05/27/2020 15:00 457.20 0.00 -- 92.2 40.8
05/27/2020 14:00 457.19 0.00 -- 91.5 40.0
05/27/2020 13:00 457.18 0.00 -- 87.6 39.8
05/27/2020 12:00 457.18 0.00 -- 85.2 39.8
05/27/2020 11:00 457.18 0.00 -- 80.4 39.0
05/27/2020 10:00 457.18 0.00 -- 74.5 39.3
05/27/2020 09:00 457.17 0.00 -- 69.2 39.0
05/27/2020 08:00 457.18 0.00 -- 63.6 39.0
05/27/2020 07:00 457.18 0.00 -- 61.0 40.0
05/27/2020 06:00 457.18 0.00 -- 61.0 40.0
05/27/2020 05:00 457.18 0.00 -- 61.3 40.0
05/27/2020 04:00 457.18 0.00 -- 62.2 40.0
05/27/2020 03:00 457.18 0.00 -- 63.5 40.0
05/27/2020 02:00 457.18 0.00 -- 64.3 40.0
05/27/2020 01:00 457.19 0.00 -- 66.6 40.0
05/27/2020 00:00 457.19 0.00 0.00 68.4 40.5
05/26/2020 23:00 457.19 0.00 -- 72.5 41.0
05/26/2020 22:00 457.19 0.00 -- 76.6 41.0
05/26/2020 21:00 457.20 0.00 -- 82.5 41.5
05/26/2020 20:00 457.20 0.00 -- 85.3 42.0
05/26/2020 19:00 457.20 0.00 -- 88.0 41.3
05/26/2020 18:00 457.20 0.00 -- 88.6 41.8
05/26/2020 17:00 457.21 0.00 -- 88.8 41.8
05/26/2020 16:00 457.20 0.00 -- 85.8 41.5
05/26/2020 15:00 457.19 0.00 -- 86.5 41.0
05/26/2020 14:00 457.19 0.00 -- 83.1 40.8
05/26/2020 13:00 457.19 0.00 -- 83.2 41.0
05/26/2020 12:00 457.19 0.00 -- 78.3 41.0
05/26/2020 11:00 457.19 0.00 -- 73.1 40.8
05/26/2020 10:00 457.19 0.00 -- 68.9 40.0
05/26/2020 09:00 457.19 0.00 -- 63.3 40.0
05/26/2020 08:00 457.19 0.00 -- 59.9 40.0
05/26/2020 07:00 457.19 0.00 -- 58.3 41.0
05/26/2020 06:00 457.19 0.00 -- 59.1 40.8
05/26/2020 05:00 457.19 0.00 -- 59.7 40.8
05/26/2020 04:00 457.19 0.00 -- 60.4 40.8
05/26/2020 03:00 457.19 0.00 -- 60.9 41.0
05/26/2020 02:00 457.19 0.00 -- 60.6 41.0
05/26/2020 01:00 457.20 0.00 -- 60.8 41.0
05/26/2020 00:00 457.19 0.00 0.00 61.5 41.3
05/25/2020 23:00 457.20 0.00 -- 62.1 41.0
05/25/2020 22:00 457.19 0.00 -- 62.6 41.3
05/25/2020 21:00 457.20 0.00 -- 62.9 41.0
05/25/2020 20:00 457.20 0.00 -- 64.2 41.5
05/25/2020 19:00 457.20 0.00 -- 64.3 41.5
05/25/2020 18:00 457.20 0.00 -- 64.5 41.5
05/25/2020 17:00 457.20 0.00 -- 65.2 41.8
05/25/2020 16:00 457.20 0.00 -- 64.4 41.8
05/25/2020 15:00 457.20 0.00 -- 65.7 42.5
05/25/2020 14:00 457.21 0.00 -- 65.7 43.0
05/25/2020 13:00 457.22 0.00 -- 67.1 42.8
05/25/2020 12:00 457.20 0.00 -- 64.4 43.3
05/25/2020 11:00 457.20 0.00 -- 59.9 42.0
05/25/2020 10:00 457.20 0.00 -- 55.2 42.0
05/25/2020 09:00 457.20 0.00 -- 49.6 42.0
05/25/2020 08:00 457.20 0.00 -- 44.4 42.0
05/25/2020 07:00 457.20 0.00 -- 40.5 42.0
05/25/2020 06:00 457.20 0.00 -- 40.5 42.3
05/25/2020 05:00 457.21 0.00 -- 41.6 42.8
05/25/2020 04:00 457.21 0.00 -- 41.5 43.0
05/25/2020 03:00 457.21 0.00 -- 41.9 43.0
05/25/2020 02:00 457.21 0.00 -- 45.6 43.0
05/25/2020 01:00 457.21 0.00 -- 47.7 43.8
05/25/2020 00:00 457.22 0.00 0.00 48.6 44.0
05/24/2020 23:00 457.22 0.00 -- 52.6 44.0
05/24/2020 22:00 457.22 0.00 -- 55.4 44.0
05/24/2020 21:00 457.22 0.00 -- 59.2 44.5
05/24/2020 20:00 457.23 0.00 -- 62.4 44.8
05/24/2020 19:00 457.23 0.00 -- 67.5 45.5
05/24/2020 18:00 457.24 0.00 -- 71.8 45.3
05/24/2020 17:00 457.23 0.00 -- 71.8 44.8
05/24/2020 16:00 457.23 0.00 -- 71.2 44.8
05/24/2020 15:00 457.23 0.00 -- 69.0 44.8
05/24/2020 14:00 457.23 0.00 -- 65.1 45.0
05/24/2020 13:00 457.23 0.00 -- 64.5 45.0
05/24/2020 12:00 457.22 0.00 -- 62.0 45.0
05/24/2020 11:00 457.22 0.00 -- 58.6 44.8
05/24/2020 10:00 457.22 0.00 -- 56.1 44.5
05/24/2020 09:00 457.22 0.00 -- 49.9 44.8
05/24/2020 08:00 457.23 0.00 -- 43.2 45.0
05/24/2020 07:00 457.23 0.00 -- 40.1 45.3
05/24/2020 06:00 457.23 0.00 -- 39.9 46.0
05/24/2020 05:00 457.24 0.00 -- 41.1 46.0
05/24/2020 04:00 457.24 0.00 -- 41.5 46.0
05/24/2020 03:00 457.24 0.00 -- 42.4 46.0
05/24/2020 02:00 457.24 0.00 -- 43.1 46.8
05/24/2020 01:00 457.25 0.00 -- 45.6 47.0
05/24/2020 00:00 457.25 0.00 0.00 49.8 47.0
05/23/2020 23:00 457.25 0.00 -- 51.7 47.3
05/23/2020 22:00 457.25 0.00 -- 55.1 47.0
05/23/2020 21:00 457.25 0.00 -- 59.4 47.8
05/23/2020 20:00 457.26 0.00 -- 63.4 47.5
05/23/2020 19:00 457.26 0.00 -- 67.2 48.0
05/23/2020 18:00 457.25 0.00 -- 70.7 47.3
05/23/2020 17:00 457.24 0.00 -- 71.0 47.0
05/23/2020 16:00 457.25 0.00 -- 73.8 47.5
05/23/2020 15:00 457.26 0.00 -- 74.5 47.5
05/23/2020 14:00 457.25 0.00 -- 74.9 48.0
05/23/2020 13:00 457.25 0.00 -- 72.4 47.8
05/23/2020 12:00 457.25 0.00 -- 72.2 47.5
05/23/2020 11:00 457.25 0.00 -- 70.5 48.3
05/23/2020 10:00 457.25 0.00 -- 68.0 48.0
05/23/2020 09:00 457.25 0.00 -- 67.2 48.3
05/23/2020 08:00 457.26 0.00 -- 56.9 48.8
05/23/2020 07:00 457.26 0.00 -- 50.3 49.0
05/23/2020 06:00 457.26 0.00 -- 51.1 48.8
05/23/2020 05:00 457.27 0.00 -- 53.5 49.0
05/23/2020 04:00 457.26 0.00 -- 54.7 49.3
05/23/2020 03:00 457.27 0.00 -- 57.0 49.0
05/23/2020 02:00 457.27 0.00 -- 57.9 49.5
05/23/2020 01:00 457.27 0.00 -- 60.7 49.3
05/23/2020 00:00 457.26 0.00 0.00 62.8 49.3
05/22/2020 23:00 457.27 0.00 -- 64.2 49.0
05/22/2020 22:00 457.27 0.00 -- 69.3 49.0
05/22/2020 21:00 457.26 0.00 -- 78.5 49.0
05/22/2020 20:00 457.27 0.00 -- 84.0 48.8
05/22/2020 19:00 457.26 0.00 -- 86.3 49.3
05/22/2020 18:00 457.26 0.00 -- 89.6 49.3
05/22/2020 17:00 457.26 0.00 -- 87.3 48.5
05/22/2020 16:00 457.27 0.00 -- 87.8 49.0
05/22/2020 15:00 457.27 0.00 -- 85.2 49.0
05/22/2020 14:00 457.27 0.00 -- 84.2 49.8
05/22/2020 13:00 457.26 0.00 -- 82.8 49.8
05/22/2020 12:00 457.27 0.00 -- 81.4 49.8
05/22/2020 11:00 457.26 0.00 -- 78.0 48.8
05/22/2020 10:00 457.25 0.00 -- 72.9 48.3
05/22/2020 09:00 457.26 0.00 -- 65.5 48.5
05/22/2020 08:00 457.26 0.00 -- 53.7 48.5
05/22/2020 07:00 457.26 0.00 -- 46.4 48.0
05/22/2020 06:00 457.26 0.00 -- 46.5 48.0
05/22/2020 05:00 457.25 0.00 -- 47.8 48.3
05/22/2020 04:00 457.26 0.00 -- 49.1 48.3
05/22/2020 03:00 457.25 0.00 -- 51.8 47.8
05/22/2020 02:00 457.25 0.00 -- 53.0 48.0
05/22/2020 01:00 457.25 0.00 -- 55.9 47.8
05/22/2020 00:00 457.25 0.00 0.00 57.4 47.3
05/21/2020 23:00 457.25 0.00 -- 61.4 47.0
05/21/2020 22:00 457.25 0.00 -- 65.9 47.0
05/21/2020 21:00 457.25 0.00 -- 77.7 46.8
05/21/2020 20:00 457.24 0.00 -- 81.3 46.3
05/21/2020 19:00 457.25 0.00 -- 82.9 46.5
05/21/2020 18:00 457.25 0.00 -- 83.4 46.5
05/21/2020 17:00 457.22 0.00 -- 81.3 45.5
05/21/2020 16:00 457.24 0.00 -- 82.4 45.0
05/21/2020 15:00 457.23 0.00 -- 80.4 44.3
05/21/2020 14:00 457.20 0.00 -- 80.0 42.8
05/21/2020 13:00 457.20 0.00 -- 76.7 42.0
05/21/2020 12:00 457.19 0.00 -- 73.4 41.3
05/21/2020 11:00 457.20 0.00 -- 68.9 41.0
05/21/2020 10:00 457.18 0.00 -- 62.2 39.3
05/21/2020 09:00 457.17 0.00 -- 54.4 38.3
05/21/2020 08:00 457.16 0.00 -- 45.9 37.3
05/21/2020 07:00 457.15 0.00 -- 42.4 36.5
05/21/2020 06:00 457.14 0.00 -- 42.8 35.5
05/21/2020 05:00 457.13 0.00 -- 45.0 34.5
05/21/2020 04:00 457.12 0.00 -- 47.2 33.0
05/21/2020 03:00 457.11 0.00 -- 50.9 32.5
05/21/2020 02:00 457.10 0.00 -- 56.9 31.8
05/21/2020 01:00 457.09 0.00 -- 58.4 30.8
05/21/2020 00:00 457.07 0.00 0.00 58.5 28.8
05/20/2020 23:00 457.06 0.00 -- 59.9 25.8
05/20/2020 22:00 457.04 0.00 -- 62.8 23.8
05/20/2020 21:00 457.03 0.00 -- 67.4 22.8
05/20/2020 20:00 457.01 0.00 -- 73.3 21.8
05/20/2020 19:00 456.99 0.00 -- 74.0 20.5
05/20/2020 18:00 456.97 0.00 -- 76.8 19.0
05/20/2020 17:00 456.94 0.00 -- 76.7 17.5
05/20/2020 16:00 456.90 0.00 -- 74.9 16.0
05/20/2020 15:00 456.89 0.00 -- 74.8 15.5
05/20/2020 14:00 456.86 0.00 -- 73.2 14.3
05/20/2020 13:00 456.83 0.00 -- 68.5 13.3
05/20/2020 12:00 456.80 0.00 -- 66.3 12.0
05/20/2020 11:00 456.78 0.00 -- 62.5 38.8
05/20/2020 10:00 456.73 0.00 -- 55.6 60.5
05/20/2020 09:00 456.73 0.00 -- 49.8 61.0
05/20/2020 08:00 456.73 0.00 -- 42.3 61.3
05/20/2020 07:00 456.73 0.00 -- 39.4 61.3
05/20/2020 06:00 456.73 0.00 -- 40.4 62.0
05/20/2020 05:00 456.73 0.00 -- 40.6 62.0
05/20/2020 04:00 456.74 0.00 -- 43.3 62.3
05/20/2020 03:00 456.74 0.00 -- 46.4 62.5
05/20/2020 02:00 456.75 0.00 -- 48.4 63.5
05/20/2020 01:00 456.75 0.00 -- 49.3 63.8
05/20/2020 00:00 456.75 0.00 0.00 49.8 64.0
05/19/2020 23:00 456.76 0.00 -- 53.7 64.8
05/19/2020 22:00 456.76 0.00 -- 58.5 65.0
05/19/2020 21:00 456.76 0.00 -- 61.9 65.0
05/19/2020 20:00 456.76 0.00 -- 67.8 65.0
05/19/2020 19:00 456.76 0.00 -- 68.5 64.8
05/19/2020 18:00 456.76 0.00 -- 68.9 65.0
05/19/2020 17:00 456.75 0.00 -- 68.0 64.8
05/19/2020 16:00 456.76 0.00 -- 68.3 65.0
05/19/2020 15:00 456.76 0.00 -- 65.7 65.0
05/19/2020 14:00 456.77 0.00 -- 66.0 65.5
05/19/2020 13:00 456.76 0.00 -- 63.6 65.0
05/19/2020 12:00 456.77 0.00 -- 60.9 65.8
05/19/2020 11:00 456.77 0.00 -- 59.3 65.5
05/19/2020 10:00 456.76 0.00 -- 57.0 65.5
05/19/2020 09:00 456.76 0.00 -- 53.0 66.0
05/19/2020 08:00 456.77 0.00 -- 44.2 66.5
05/19/2020 07:00 456.77 0.00 -- 38.5 67.0
05/19/2020 06:00 456.77 0.00 -- 39.2 67.5
05/19/2020 05:00 456.78 0.00 -- 40.6 67.5
05/19/2020 04:00 456.78 0.00 -- 41.1 68.0
05/19/2020 03:00 456.79 0.00 -- 44.5 68.3
05/19/2020 02:00 456.79 0.00 -- 45.5 69.0
05/19/2020 01:00 456.80 0.00 -- 47.6 69.8
05/19/2020 00:00 456.79 0.00 0.00 49.6 69.8
05/18/2020 23:00 456.80 0.00 -- 53.4 70.3
05/18/2020 22:00 456.80 0.00 -- 58.8 71.0
05/18/2020 21:00 456.81 0.00 -- 63.9 71.0
05/18/2020 20:00 456.81 0.00 -- 69.0 71.0
05/18/2020 19:00 456.82 0.00 -- 74.2 73.0
05/18/2020 18:00 456.82 0.00 -- 74.6 72.8
05/18/2020 17:00 456.82 0.00 -- 73.6 73.3
05/18/2020 16:00 456.82 0.00 -- 73.9 72.5
05/18/2020 15:00 456.82 0.00 -- 71.2 72.8
05/18/2020 14:00 456.82 0.00 -- 66.0 73.3
05/18/2020 13:00 456.82 0.00 -- 63.8 73.5
05/18/2020 12:00 456.82 0.00 -- 63.0 74.3
05/18/2020 11:00 456.83 0.00 -- 60.1 74.0
05/18/2020 10:00 456.83 0.00 -- 59.4 74.3
05/18/2020 09:00 456.83 0.00 -- 56.9 74.3
05/18/2020 08:00 456.84 0.00 -- 53.2 75.0
05/18/2020 07:00 456.84 0.00 -- 53.0 75.5
05/18/2020 06:00 456.85 0.00 -- 54.1 76.8
05/18/2020 05:00 456.85 0.00 -- 52.6 76.8
05/18/2020 04:00 456.85 0.00 -- 53.1 77.5
05/18/2020 03:00 456.86 0.00 -- 53.6 77.8
05/18/2020 02:00 456.86 0.00 -- 54.3 78.3
05/18/2020 01:00 456.86 0.00 -- 55.2 78.8
05/18/2020 00:00 456.86 0.00 0.00 56.1 78.5
05/17/2020 23:00 456.87 0.00 -- 57.4 79.5
05/17/2020 22:00 456.87 0.00 -- 59.9 79.5
05/17/2020 21:00 456.87 0.00 -- 65.3 80.0
05/17/2020 20:00 456.87 0.00 -- 69.5 81.0
05/17/2020 19:00 456.88 0.00 -- 71.0 81.8
05/17/2020 18:00 456.89 0.00 -- 71.4 81.5
05/17/2020 17:00 456.88 0.00 -- 74.4 81.0
05/17/2020 16:00 456.88 0.00 -- 69.1 81.5
05/17/2020 15:00 456.89 0.00 -- 67.0 81.3
05/17/2020 14:00 456.89 0.00 -- 67.5 82.0
05/17/2020 13:00 456.89 0.00 -- 66.9 82.8
05/17/2020 12:00 456.88 0.00 -- 65.6 82.8
05/17/2020 11:00 456.89 0.00 -- 64.6 82.8
05/17/2020 10:00 456.90 0.00 -- 57.0 82.8
05/17/2020 09:00 456.89 0.00 -- 51.8 82.8
05/17/2020 08:00 456.89 0.00 -- 45.8 82.5
05/17/2020 07:00 456.90 0.00 -- 43.7 83.3
05/17/2020 06:00 456.90 0.00 -- 45.7 84.0
05/17/2020 05:00 456.90 0.00 -- 48.0 84.0
05/17/2020 04:00 456.90 0.00 -- 50.9 84.8
05/17/2020 03:00 456.90 0.00 -- 52.0 84.5
05/17/2020 02:00 456.90 0.00 -- 53.2 84.3
05/17/2020 01:00 456.91 0.00 -- 54.2 85.0
05/17/2020 00:00 456.91 0.00 0.00 55.5 85.3
05/16/2020 23:00 456.90 0.00 -- 57.0 84.5
05/16/2020 22:00 456.91 0.00 -- 58.0 85.3
05/16/2020 21:00 456.92 0.00 -- 59.5 85.5
05/16/2020 20:00 456.91 0.00 -- 61.8 85.0
05/16/2020 19:00 456.90 0.00 -- 61.8 84.0
05/16/2020 18:00 456.90 0.00 -- 63.7 84.3
05/16/2020 17:00 456.90 0.00 -- 63.0 83.8
05/16/2020 16:00 456.90 0.00 -- 61.2 83.3
05/16/2020 15:00 456.90 0.00 -- 64.3 82.8
05/16/2020 14:00 456.89 0.00 -- 61.7 83.0
05/16/2020 13:00 456.88 0.00 -- 60.0 81.5
05/16/2020 12:00 456.89 0.00 -- 57.9 80.5
05/16/2020 11:00 456.89 0.00 -- 60.7 80.5
05/16/2020 10:00 456.87 0.00 -- 58.3 77.8
05/16/2020 09:00 456.86 0.00 -- 55.0 78.3
05/16/2020 08:00 456.86 0.00 -- 54.5 77.8
05/16/2020 07:00 456.84 0.00 -- 55.6 75.3
05/16/2020 06:00 456.84 0.00 -- 52.8 74.0
05/16/2020 05:00 456.82 0.00 -- 49.7 73.3
05/16/2020 04:00 456.82 0.00 -- 49.8 72.5
05/16/2020 03:00 456.81 0.01 -- 50.0 72.0
05/16/2020 02:00 456.81 0.00 -- 50.2 71.3
05/16/2020 01:00 456.80 0.00 -- 51.4 70.3
05/16/2020 00:00 456.80 0.01 0.01 53.4 70.3
05/15/2020 23:00 456.80 0.13 -- 54.5 69.5
05/15/2020 22:00 456.79 0.34 -- 55.0 67.5
05/15/2020 21:00 456.76 0.12 -- 56.2 64.5
05/15/2020 20:00 456.75 0.00 -- 61.0 64.0
05/15/2020 19:00 456.75 0.00 -- 61.5 64.3
05/15/2020 18:00 456.75 0.01 -- 63.1 63.8
05/15/2020 17:00 456.75 0.00 -- 70.4 64.0
05/15/2020 16:00 456.75 0.00 -- 71.6 64.3
05/15/2020 15:00 456.76 0.00 -- 68.7 64.0
05/15/2020 14:00 456.75 0.00 -- 67.1 63.8
05/15/2020 13:00 456.75 0.00 -- 63.5 63.8
05/15/2020 12:00 456.75 0.00 -- 61.4 63.8
05/15/2020 11:00 456.75 0.00 -- 57.0 64.0
05/15/2020 10:00 456.76 0.00 -- 53.7 64.0
05/15/2020 09:00 456.75 0.00 -- 51.5 64.0
05/15/2020 08:00 456.75 0.00 -- 50.9 64.3
05/15/2020 07:00 456.76 0.00 -- 50.1 65.0
05/15/2020 06:00 456.76 0.00 -- 49.9 65.0
05/15/2020 05:00 456.75 0.00 -- 50.8 64.5
05/15/2020 04:00 456.76 0.00 -- 52.0 64.8
05/15/2020 03:00 456.76 0.00 -- 53.9 64.8
05/15/2020 02:00 456.76 0.00 -- 53.7 65.0
05/15/2020 01:00 456.76 0.00 -- 52.8 65.3
05/15/2020 00:00 456.76 0.00 0.61 55.1 65.3
05/14/2020 23:00 456.76 0.00 -- 55.7 65.5
05/14/2020 22:00 456.76 0.00 -- 58.9 66.0
05/14/2020 21:00 456.77 0.00 -- 63.7 66.0
05/14/2020 20:00 456.77 0.00 -- 67.5 67.3
05/14/2020 19:00 456.78 0.00 -- 69.5 67.5
05/14/2020 18:00 456.79 0.00 -- 69.5 68.3
05/14/2020 17:00 456.78 0.00 -- 68.9 67.8
05/14/2020 16:00 456.78 0.00 -- 67.1 68.5
05/14/2020 15:00 456.78 0.00 -- 66.6 67.8
05/14/2020 14:00 456.79 0.00 -- 64.8 67.8
05/14/2020 13:00 456.78 0.00 -- 60.9 66.8
05/14/2020 12:00 456.78 0.00 -- 57.5 67.3
05/14/2020 11:00 456.79 0.00 -- 56.8 68.0
05/14/2020 10:00 456.77 0.00 -- 53.3 67.3
05/14/2020 09:00 456.77 0.00 -- 48.9 67.8
05/14/2020 08:00 456.78 0.00 -- 48.6 68.0
05/14/2020 07:00 456.79 0.00 -- 34.4 68.3
05/14/2020 06:00 456.77 0.00 -- 32.4 68.0
05/14/2020 05:00 456.78 0.00 -- 34.3 68.5
05/14/2020 04:00 456.80 0.00 -- 34.1 69.0
05/14/2020 03:00 456.79 0.00 -- 36.3 68.5
05/14/2020 02:00 456.79 0.00 -- 38.4 68.8
05/14/2020 01:00 456.79 0.00 -- 42.1 69.3
05/14/2020 00:00 456.80 0.00 0.00 49.1 70.0
05/13/2020 23:00 456.79 0.00 -- 49.0 70.0
05/13/2020 22:00 456.80 0.00 -- 50.1 70.0
05/13/2020 21:00 456.80 0.00 -- 52.4 70.5
05/13/2020 20:00 456.81 0.00 -- 53.9 71.0
05/13/2020 19:00 456.83 0.00 -- 54.1 73.8
05/13/2020 18:00 456.81 0.00 -- 54.3 72.0
05/13/2020 17:00 456.84 0.00 -- 54.1 73.5
05/13/2020 16:00 456.80 0.00 -- 52.7 72.8
05/13/2020 15:00 456.82 0.00 -- 52.8 73.3
05/13/2020 14:00 456.84 0.00 -- 50.3 73.0
05/13/2020 13:00 456.83 0.00 -- 47.9 73.3
05/13/2020 12:00 456.81 0.00 -- 48.5 73.3
05/13/2020 11:00 456.85 0.00 -- 46.0 74.0
05/13/2020 10:00 456.83 0.00 -- 45.0 73.8
05/13/2020 09:00 456.82 0.00 -- 43.1 73.8
05/13/2020 08:00 456.83 0.00 -- 34.1 73.5
05/13/2020 07:00 456.83 0.00 -- 30.2 74.0
05/13/2020 06:00 456.83 0.00 -- 30.8 74.3
05/13/2020 05:00 456.83 0.00 -- 31.3 74.5
05/13/2020 04:00 456.83 0.00 -- 33.3 75.5
05/13/2020 03:00 456.84 0.00 -- 33.7 75.5
05/13/2020 02:00 456.84 0.00 -- 34.0 75.3
05/13/2020 01:00 456.85 0.00 -- 40.1 76.5
05/13/2020 00:00 456.85 0.00 0.00 34.4 76.5
05/12/2020 23:00 456.84 0.00 -- 38.1 76.8
05/12/2020 22:00 456.85 0.00 -- 42.7 77.5
05/12/2020 21:00 456.85 0.00 -- 44.7 77.3
05/12/2020 20:00 456.87 0.00 -- 46.7 78.0
05/12/2020 19:00 456.86 0.00 -- 49.0 78.5
05/12/2020 18:00 456.87 0.00 -- 48.4 80.0
05/12/2020 17:00 -- -- -- 48.5 79.5
05/12/2020 16:00 -- -- -- 49.0 80.0
05/12/2020 15:00 -- -- -- 50.7 79.0
05/12/2020 14:00 -- -- -- 46.5 78.5
05/12/2020 13:00 -- -- -- 48.0 79.3
05/12/2020 12:00 -- -- -- 47.0 79.8
05/12/2020 11:00 -- -- -- 46.6 77.5
05/12/2020 10:00 -- -- -- 44.5 77.3
05/12/2020 09:00 -- -- -- 44.7 78.0
05/12/2020 08:00 -- -- -- 41.9 78.8
05/12/2020 07:00 -- -- -- 41.8 79.3
05/12/2020 06:00 -- -- -- 42.6 80.8
05/12/2020 05:00 -- -- -- 42.9 78.8
05/12/2020 04:00 -- -- -- 42.9 79.8
05/12/2020 03:00 -- -- -- 42.5 79.3
05/12/2020 02:00 -- -- -- 43.1 80.0
05/12/2020 01:00 -- -- -- 43.4 79.0
05/12/2020 00:00 -- -- 0.00 44.8 79.0